W2GRK-15 Weather Reports


Display with metric or nautical units.
time (UTC)temp
F
wind
direction
speed
MPH
gust
MPH
rain 1hr
in
rain 24hr
in
rain mn
in
humidity
%
barometer
mb
20260905205019 82 212 1.0 2.0 0.00 0.00 0.00 46 1011.8
20260905204931 82 27 1.0 2.0 0.00 0.00 0.00 47 1011.8
20260905204825 82 285 1.0 1.0 0.00 0.00 0.00 46 1011.8
20260905204721 82 284 1.0 1.0 0.00 0.00 0.00 46 1011.7
20260905204616 82 286 1.0 2.0 0.00 0.00 0.00 47 1011.8
20260905204528 82 289 1.0 2.0 0.00 0.00 0.00 47 1011.7
20260905204444 82 289 0.0 2.0 0.00 0.00 0.00 47 1011.8
20260905204319 82 292 0.0 1.0 0.00 0.00 0.00 47 1011.9
20260905204231 81 301 1.0 3.0 0.00 0.00 0.00 47 1011.8
20260905204127 81 302 2.0 3.0 0.00 0.00 0.00 47 1011.7
20260905204042 81 294 2.0 3.0 0.00 0.00 0.00 48 1011.8
20260905203958 81 305 4.0 6.0 0.00 0.00 0.00 48 1011.7
20260905203829 81 287 1.0 3.0 0.00 0.00 0.00 48 1011.7
20260905203745 81 240 2.0 3.0 0.00 0.00 0.00 47 1011.6
20260905203641 81 247 4.0 4.0 0.00 0.00 0.00 47 1011.7
20260905203516 81 259 3.0 6.0 0.00 0.00 0.00 48 1011.7
20260905203428 81 310 2.0 3.0 0.00 0.00 0.00 47 1011.8
20260905203323 81 272 4.0 9.0 0.00 0.00 0.00 50 1011.9
20260905203219 81 290 4.0 6.0 0.00 0.00 0.00 48 1011.9
20260905203130 81 291 4.0 6.0 0.00 0.00 0.00 48 1011.8
20260905203026 81 259 2.0 4.0 0.00 0.00 0.00 47 1011.8
20260905202942 81 307 1.0 3.0 0.00 0.00 0.00 48 1011.8
20260905202817 80 290 2.0 3.0 0.00 0.00 0.00 47 1011.7
20260905202729 80 253 2.0 4.0 0.00 0.00 0.00 48 1011.8
20260905202624 80 283 4.0 6.0 0.00 0.00 0.00 48 1011.8
20260905202520 80 300 4.0 7.0 0.00 0.00 0.00 48 1011.7
20260905202416 80 303 3.0 6.0 0.00 0.00 0.00 47 1011.8
20260905202347 81 288 3.0 4.0 0.00 0.00 0.00 45 1011.7
20260905202222 81 252 5.0 8.0 0.00 0.00 0.00 46 1011.8
20260905202118 81 284 3.0 3.0 0.00 0.00 0.00 47 1011.8
20260905202049 81 307 3.0 4.0 0.00 0.00 0.00 46 1011.8
20260905201925 81 270 2.0 4.0 0.00 0.00 0.00 46 1011.8
20260905201841 81 271 3.0 4.0 0.00 0.00 0.00 47 1012.0
20260905201716 81 266 2.0 3.0 0.00 0.00 0.00 48 1011.8
20260905201628 81 302 2.0 2.0 0.00 0.00 0.00 49 1011.8
20260905201523 81 317 2.0 3.0 0.00 0.00 0.00 49 1011.8
20260905201419 81 339 2.0 2.0 0.00 0.00 0.00 48 1011.9
20260905201331 81 346 3.0 4.0 0.00 0.00 0.00 48 1011.9
20260905201226 81 287 1.0 4.0 0.00 0.00 0.00 47 1011.8
20260905201141 81 290 2.0 4.0 0.00 0.00 0.00 47 1011.7
20260905201017 81 248 3.0 4.0 0.00 0.00 0.00 47 1011.8
20260905200929 81 308 1.0 2.0 0.00 0.00 0.00 49 1011.9
20260905200844 81 308 2.0 2.0 0.00 0.00 0.00 49 1012.0
20260905200720 81 305 1.0 3.0 0.00 0.00 0.00 48 1011.9
20260905200615 81 241 1.0 2.0 0.00 0.00 0.00 48 1011.8
20260905200607 81 239 1.0 2.0 0.00 0.00 0.00 48 1011.7
20260905200442 81 238 1.0 2.0 0.00 0.00 0.00 49 1011.8
20260905200318 80 241 2.0 4.0 0.00 0.00 0.00 48 1011.8
20260905200249 80 286 2.0 4.0 0.00 0.00 0.00 48 1011.8
20260905200145 80 320 0.0 1.0 0.00 0.00 0.00 47 1011.8
20260905200021 80 323 2.0 3.0 0.00 0.00 0.00 49 1011.7
20260905195916 80 292 3.0 6.0 0.00 0.00 0.00 49 1012.0
20260905195828 80 292 2.0 2.0 0.00 0.00 0.00 49 1012.0
20260905195723 80 285 3.0 6.0 0.00 0.00 0.00 49 1011.9
20260905195619 80 316 2.0 2.0 0.00 0.00 0.00 50 1012.0
20260905195531 80 322 0.0 1.0 0.00 0.00 0.00 50 1011.9
20260905195426 80 0.0 0.0 0.00 0.00 0.00 50 1011.8
20260905195321 80 323 1.0 1.0 0.00 0.00 0.00 50 1011.9
20260905195217 80 323 1.0 1.0 0.00 0.00 0.00 50 1012.0
20260905195128 80 324 2.0 2.0 0.00 0.00 0.00 49 1011.9
20260905195044 80 322 1.0 2.0 0.00 0.00 0.00 49 1011.9
20260905194919 80 325 1.0 2.0 0.00 0.00 0.00 49 1012.0
20260905194831 80 341 0.0 1.0 0.00 0.00 0.00 49 1011.9
20260905194725 80 354 1.0 2.0 0.00 0.00 0.00 49 1012.0
20260905194621 80 337 0.0 1.0 0.00 0.00 0.00 49 1012.1
20260905194537 80 337 0.0 1.0 0.00 0.00 0.00 48 1011.8
20260905194429 80 333 1.0 2.0 0.00 0.00 0.00 49 1011.9
20260905194324 80 309 3.0 4.0 0.00 0.00 0.00 49 1012.0
20260905194219 80 336 2.0 3.0 0.00 0.00 0.00 49 1011.8
20260905194115 81 278 3.0 4.0 0.00 0.00 0.00 48 1012.0
20260905194027 81 341 2.0 7.0 0.00 0.00 0.00 47 1011.9
20260905193922 81 239 2.0 4.0 0.00 0.00 0.00 48 1012.0
20260905193818 81 285 1.0 2.0 0.00 0.00 0.00 48 1011.9
20260905193729 81 282 1.0 1.0 0.00 0.00 0.00 49 1012.0
20260905193625 81 282 1.0 1.0 0.00 0.00 0.00 49 1012.0
20260905193521 81 282 1.0 2.0 0.00 0.00 0.00 49 1012.1
20260905193416 81 282 0.0 1.0 0.00 0.00 0.00 49 1011.8
20260905193328 81 282 0.0 1.0 0.00 0.00 0.00 49 1011.9
20260905193224 81 281 1.0 2.0 0.00 0.00 0.00 48 1011.9
20260905193119 81 290 1.0 2.0 0.00 0.00 0.00 48 1011.8
20260905193031 81 309 2.0 3.0 0.00 0.00 0.00 48 1011.7
20260905192926 81 307 0.0 1.0 0.00 0.00 0.00 48 1012.0
20260905192822 80 295 1.0 3.0 0.00 0.00 0.00 47 1011.9
20260905192718 81 307 4.0 6.0 0.00 0.00 0.00 48 1011.9
20260905192629 81 251 4.0 7.0 0.00 0.00 0.00 49 1011.8
20260905192525 80 292 2.0 3.0 0.00 0.00 0.00 50 1012.0
20260905192420 80 313 0.0 1.0 0.00 0.00 0.00 49 1011.8
20260905192316 81 0.0 0.0 0.00 0.00 0.00 49 1012.0
20260905192227 81 313 0.0 1.0 0.00 0.00 0.00 48 1012.0
20260905192123 81 313 0.0 1.0 0.00 0.00 0.00 48 1011.9
20260905192038 81 285 2.0 3.0 0.00 0.00 0.00 47 1011.9
20260905191930 81 292 3.0 4.0 0.00 0.00 0.00 48 1012.1
20260905191845 81 294 2.0 3.0 0.00 0.00 0.00 48 1012.0
20260905191721 81 294 3.0 4.0 0.00 0.00 0.00 48 1012.1
20260905191616 81 301 4.0 6.0 0.00 0.00 0.00 48 1012.0
20260905191528 81 293 2.0 3.0 0.00 0.00 0.00 49 1012.0
20260905191424 81 252 2.0 2.0 0.00 0.00 0.00 49 1012.0
20260905191319 81 265 1.0 2.0 0.00 0.00 0.00 49 1012.0
20260905191230 81 261 2.0 4.0 0.00 0.00 0.00 48 1012.0
20260905191125 81 112 1.0 2.0 0.00 0.00 0.00 48 1012.0
20260905191021 81 138 2.0 2.0 0.00 0.00 0.00 47 1012.0
20260905190917 81 255 3.0 3.0 0.00 0.00 0.00 49 1012.2
20260905190828 81 321 3.0 6.0 0.00 0.00 0.00 49 1011.9
20260905190724 81 317 2.0 4.0 0.00 0.00 0.00 48 1011.9
20260905190619 81 255 2.0 3.0 0.00 0.00 0.00 49 1011.8
20260905190531 81 252 1.0 4.0 0.00 0.00 0.00 49 1011.8
20260905190426 81 4 1.0 1.0 0.00 0.00 0.00 49 1011.8
20260905190322 81 5 1.0 1.0 0.00 0.00 0.00 48 1011.9
20260905190217 81 359 1.0 3.0 0.00 0.00 0.00 48 1011.9
20260905190129 81 339 3.0 4.0 0.00 0.00 0.00 48 1011.9
20260905190025 80 322 4.0 8.0 0.00 0.00 0.00 48 1012.0
20260905190000 80 290 2.0 3.0 0.00 0.00 0.00 49 1012.1
20260905185816 80 285 3.0 4.0 0.00 0.00 0.00 49 1012.0
20260905185727 80 293 3.0 7.0 0.00 0.00 0.00 48 1012.0
20260905185622 80 312 5.0 8.0 0.00 0.00 0.00 48 1011.8
20260905185518 80 294 6.0 9.0 0.00 0.00 0.00 47 1011.9
20260905185450 80 322 5.0 7.0 0.00 0.00 0.00 48 1012.1
20260905185325 80 315 2.0 3.0 0.00 0.00 0.00 48 1012.0
20260905185241 80 306 2.0 4.0 0.00 0.00 0.00 48 1011.9
20260905185136 80 302 4.0 9.0 0.00 0.00 0.00 48 1012.0
20260905185028 80 297 4.0 8.0 0.00 0.00 0.00 48 1012.1
20260905184923 80 243 3.0 6.0 0.00 0.00 0.00 48 1012.1
20260905184819 80 267 3.0 4.0 0.00 0.00 0.00 48 1012.1
20260905184731 80 287 3.0 4.0 0.00 0.00 0.00 48 1012.3
20260905184625 80 297 4.0 4.0 0.00 0.00 0.00 47 1012.0
20260905184521 80 298 3.0 4.0 0.00 0.00 0.00 47 1012.0
20260905184437 80 302 2.0 6.0 0.00 0.00 0.00 47 1012.1
20260905184328 80 288 2.0 6.0 0.00 0.00 0.00 47 1012.0
20260905184224 80 297 1.0 4.0 0.00 0.00 0.00 47 1012.2
20260905184119 80 300 4.0 7.0 0.00 0.00 0.00 47 1012.1
20260905184050 80 300 4.0 6.0 0.00 0.00 0.00 47 1012.1
20260905183946 80 304 4.0 7.0 0.00 0.00 0.00 46 1012.1
20260905183822 80 311 6.0 7.0 0.00 0.00 0.00 48 1012.2
20260905183717 80 317 3.0 6.0 0.00 0.00 0.00 47 1012.1
20260905183629 79 310 4.0 7.0 0.00 0.00 0.00 48 1012.1
20260905183524 79 317 2.0 4.0 0.00 0.00 0.00 48 1012.1
20260905183419 79 339 1.0 1.0 0.00 0.00 0.00 48 1012.1
20260905183335 79 311 3.0 6.0 0.00 0.00 0.00 48 1012.3
20260905183227 79 299 4.0 7.0 0.00 0.00 0.00 48 1012.2
20260905183122 79 270 5.0 9.0 0.00 0.00 0.00 48 1012.2
20260905183038 79 287 3.0 6.0 0.00 0.00 0.00 47 1012.1
20260905182950 79 252 4.0 8.0 0.00 0.00 0.00 47 1012.3
20260905182825 79 320 5.0 8.0 0.00 0.00 0.00 48 1012.4
20260905182741 79 294 3.0 7.0 0.00 0.00 0.00 48 1012.2
20260905182616 79 303 1.0 2.0 0.00 0.00 0.00 48 1012.2
20260905182527 79 303 4.0 8.0 0.00 0.00 0.00 48 1012.2
20260905182422 78 309 5.0 8.0 0.00 0.00 0.00 49 1012.1
20260905182318 78 255 4.0 6.0 0.00 0.00 0.00 48 1012.2
20260905182310 79 241 5.0 10.0 0.00 0.00 0.00 47 1012.3
20260905182125 79 231 6.0 10.0 0.00 0.00 0.00 47 1012.2
20260905182041 79 252 5.0 8.0 0.00 0.00 0.00 48 1012.3
20260905181916 79 322 5.0 9.0 0.00 0.00 0.00 49 1012.2
20260905181908 79 288 4.0 9.0 0.00 0.00 0.00 48 1012.2
20260905181723 79 257 3.0 7.0 0.00 0.00 0.00 48 1012.3
20260905181619 79 315 3.0 4.0 0.00 0.00 0.00 48 1012.2
20260905181531 79 323 3.0 4.0 0.00 0.00 0.00 48 1012.2
20260905181426 79 297 2.0 4.0 0.00 0.00 0.00 49 1012.4
20260905181321 79 285 1.0 2.0 0.00 0.00 0.00 50 1012.4
20260905181217 79 299 3.0 4.0 0.00 0.00 0.00 49 1012.2
20260905181128 79 287 3.0 6.0 0.00 0.00 0.00 48 1012.4
20260905181024 79 297 6.0 8.0 0.00 0.00 0.00 49 1012.4
20260905180919 79 269 4.0 7.0 0.00 0.00 0.00 49 1012.2
20260905180831 79 279 3.0 6.0 0.00 0.00 0.00 48 1012.4
20260905180726 79 286 6.0 10.0 0.00 0.00 0.00 47 1012.3
20260905180621 79 315 5.0 8.0 0.00 0.00 0.00 47 1012.3
20260905180536 79 262 3.0 6.0 0.00 0.00 0.00 47 1012.1
20260905180428 79 301 3.0 4.0 0.00 0.00 0.00 47 1012.3
20260905180323 79 329 3.0 4.0 0.00 0.00 0.00 48 1012.3
20260905180218 79 330 5.0 7.0 0.00 0.00 0.00 47 1012.4
20260905180129 79 279 4.0 6.0 0.00 0.00 0.00 48 1012.3
20260905180045 79 289 5.0 9.0 0.00 0.00 0.00 49 1012.1
20260905175919 79 273 4.0 9.0 0.00 0.00 0.00 49 1012.3
20260905175831 79 308 3.0 6.0 0.00 0.00 0.00 49 1012.2
20260905175726 79 317 3.0 8.0 0.00 0.00 0.00 48 1012.2
20260905175622 79 319 1.0 2.0 0.00 0.00 0.00 47 1012.2
20260905175517 79 254 3.0 6.0 0.00 0.00 0.00 47 1012.3
20260905175448 79 247 5.0 7.0 0.00 0.00 0.00 47 1012.3
20260905175324 79 235 5.0 7.0 0.00 0.00 0.00 48 1012.4
20260905175220 79 329 3.0 4.0 0.00 0.00 0.00 47 1012.4
20260905175115 79 254 3.0 7.0 0.00 0.00 0.00 47 1012.4
20260905175048 80 234 5.0 7.0 0.00 0.00 0.00 46 1012.4
20260905174922 80 248 4.0 7.0 0.00 0.00 0.00 47 1012.6
20260905174858 80 289 3.0 3.0 0.00 0.00 0.00 48 1012.5
20260905174729 80 300 2.0 3.0 0.00 0.00 0.00 48 1012.4
20260905174625 80 301 1.0 2.0 0.00 0.00 0.00 48 1012.4
20260905174520 80 305 2.0 3.0 0.00 0.00 0.00 47 1012.5
20260905174416 80 292 3.0 4.0 0.00 0.00 0.00 46 1012.5
20260905174328 80 294 4.0 6.0 0.00 0.00 0.00 47 1012.4
20260905174223 80 292 3.0 6.0 0.00 0.00 0.00 47 1012.4
20260905174119 80 342 5.0 7.0 0.00 0.00 0.00 46 1012.4
20260905174031 80 342 4.0 9.0 0.00 0.00 0.00 48 1012.4
20260905173926 80 353 1.0 1.0 0.00 0.00 0.00 49 1012.4
20260905173822 80 89 1.0 2.0 0.00 0.00 0.00 49 1012.3
20260905173717 80 96 0.0 1.0 0.00 0.00 0.00 48 1012.5
20260905173628 80 101 1.0 2.0 0.00 0.00 0.00 48 1012.4
20260905173524 80 87 1.0 1.0 0.00 0.00 0.00 48 1012.4
20260905173420 80 51 1.0 2.0 0.00 0.00 0.00 48 1012.4
20260905173315 80 1 0.0 1.0 0.00 0.00 0.00 48 1012.4
20260905173227 80 358 1.0 2.0 0.00 0.00 0.00 48 1012.4
20260905173122 80 319 1.0 1.0 0.00 0.00 0.00 48 1012.5
20260905173018 80 318 0.0 1.0 0.00 0.00 0.00 47 1012.5
20260905172949 80 316 1.0 2.0 0.00 0.00 0.00 47 1012.4
20260905172825 80 322 2.0 3.0 0.00 0.00 0.00 47 1012.5
20260905172721 80 305 3.0 4.0 0.00 0.00 0.00 47 1012.4
20260905172616 80 326 2.0 3.0 0.00 0.00 0.00 47 1012.6
20260905172528 80 308 2.0 4.0 0.00 0.00 0.00 47 1012.6
20260905172423 80 273 3.0 7.0 0.00 0.00 0.00 46 1012.5
20260905172319 80 275 2.0 3.0 0.00 0.00 0.00 46 1012.6
20260905172231 81 236 4.0 6.0 0.00 0.00 0.00 47 1012.6
20260905172126 81 319 4.0 6.0 0.00 0.00 0.00 46 1012.6
20260905172022 81 307 3.0 6.0 0.00 0.00 0.00 46 1012.5
20260905171917 81 333 5.0 8.0 0.00 0.00 0.00 47 1012.5
20260905171829 80 353 1.0 3.0 0.00 0.00 0.00 49 1012.5
20260905171724 80 320 1.0 1.0 0.00 0.00 0.00 48 1012.4
20260905171620 80 313 1.0 2.0 0.00 0.00 0.00 47 1012.5
20260905171515 80 300 3.0 7.0 0.00 0.00 0.00 48 1012.4
20260905171427 80 269 1.0 3.0 0.00 0.00 0.00 48 1012.6
20260905171342 80 256 2.0 4.0 0.00 0.00 0.00 47 1012.7
20260905171218 80 197 1.0 2.0 0.00 0.00 0.00 46 1012.5
20260905171130 80 305 2.0 3.0 0.00 0.00 0.00 47 1012.6
20260905171025 80 302 3.0 7.0 0.00 0.00 0.00 47 1012.7
20260905170921 80 302 4.0 6.0 0.00 0.00 0.00 47 1012.8
20260905170836 80 312 1.0 2.0 0.00 0.00 0.00 47 1012.8
20260905170748 80 316 1.0 2.0 0.00 0.00 0.00 47 1012.7
20260905170623 80 330 1.0 2.0 0.00 0.00 0.00 46 1012.7
20260905170519 80 338 2.0 3.0 0.00 0.00 0.00 46 1012.8
20260905170430 80 326 2.0 3.0 0.00 0.00 0.00 47 1012.7
20260905170326 80 4 2.0 3.0 0.00 0.00 0.00 46 1012.7
20260905170221 80 56 1.0 3.0 0.00 0.00 0.00 47 1012.5
20260905170137 80 11 1.0 2.0 0.00 0.00 0.00 46 1012.8
20260905170028 80 320 1.0 1.0 0.00 0.00 0.00 46 1012.5
20260905165924 80 338 1.0 2.0 0.00 0.00 0.00 47 1012.6
20260905165820 80 339 1.0 3.0 0.00 0.00 0.00 46 1012.5
20260905165731 80 308 2.0 4.0 0.00 0.00 0.00 46 1012.7
20260905165626 80 318 4.0 6.0 0.00 0.00 0.00 47 1012.7
20260905165522 80 315 1.0 2.0 0.00 0.00 0.00 46 1012.5
20260905165418 80 251 2.0 7.0 0.00 0.00 0.00 45 1012.5
20260905165329 81 266 5.0 8.0 0.00 0.00 0.00 45 1012.7
20260905165225 81 248 4.0 7.0 0.00 0.00 0.00 44 1012.8
20260905165120 81 247 3.0 4.0 0.00 0.00 0.00 45 1012.7
20260905165016 81 312 2.0 4.0 0.00 0.00 0.00 44 1012.4
20260905164947 81 312 2.0 2.0 0.00 0.00 0.00 44 1012.7
20260905164822 81 270 1.0 3.0 0.00 0.00 0.00 44 1012.7
20260905164718 81 245 3.0 3.0 0.00 0.00 0.00 44 1012.8
20260905164630 81 259 4.0 6.0 0.00 0.00 0.00 46 1012.6
20260905164525 81 325 2.0 4.0 0.00 0.00 0.00 47 1012.7
20260905164420 81 266 4.0 6.0 0.00 0.00 0.00 46 1012.7
20260905164316 81 262 0.0 2.0 0.00 0.00 0.00 46 1012.6
20260905164228 81 320 0.0 1.0 0.00 0.00 0.00 46 1012.7
20260905164123 80 261 2.0 2.0 0.00 0.00 0.00 47 1012.7
20260905164019 80 273 1.0 2.0 0.00 0.00 0.00 47 1012.7
20260905163931 80 327 0.0 1.0 0.00 0.00 0.00 48 1012.7
20260905163825 80 330 1.0 1.0 0.00 0.00 0.00 47 1012.7
20260905163721 80 329 0.0 1.0 0.00 0.00 0.00 46 1012.6
20260905163616 80 329 1.0 1.0 0.00 0.00 0.00 45 1012.9
20260905163528 80 337 1.0 2.0 0.00 0.00 0.00 46 1012.9
20260905163424 80 330 2.0 4.0 0.00 0.00 0.00 45 1012.9
20260905163319 80 314 3.0 3.0 0.00 0.00 0.00 45 1013.0
20260905163215 80 292 3.0 6.0 0.00 0.00 0.00 46 1012.9
20260905163147 80 295 1.0 1.0 0.00 0.00 0.00 47 1012.9
20260905163022 80 65 1.0 2.0 0.00 0.00 0.00 48 1013.0
20260905162918 80 83 1.0 2.0 0.00 0.00 0.00 47 1012.8
20260905162829 80 87 1.0 2.0 0.00 0.00 0.00 47 1013.0
20260905162745 80 89 1.0 2.0 0.00 0.00 0.00 47 1012.8
20260905162621 80 91 1.0 3.0 0.00 0.00 0.00 46 1012.8
20260905162516 80 73 2.0 3.0 0.00 0.00 0.00 46 1012.8
20260905162428 80 54 1.0 3.0 0.00 0.00 0.00 46 1012.8
20260905162324 80 325 2.0 3.0 0.00 0.00 0.00 46 1012.8
20260905162219 80 306 2.0 2.0 0.00 0.00 0.00 46 1012.7
20260905162131 80 307 3.0 4.0 0.00 0.00 0.00 47 1012.8
20260905162026 80 306 2.0 3.0 0.00 0.00 0.00 46 1013.0
20260905161922 80 331 3.0 6.0 0.00 0.00 0.00 45 1012.8
20260905161818 80 298 4.0 6.0 0.00 0.00 0.00 45 1012.8
20260905161729 80 307 4.0 8.0 0.00 0.00 0.00 44 1012.7
20260905161625 80 317 4.0 6.0 0.00 0.00 0.00 44 1012.8
20260905161521 80 324 3.0 7.0 0.00 0.00 0.00 47 1012.6
20260905161448 80 289 2.0 3.0 0.00 0.00 0.00 48 1012.9
20260905161428 80 345 1.0 2.0 0.00 0.00 0.00 47 1012.8
20260905161223 80 314 2.0 4.0 0.00 0.00 0.00 46 1012.8
20260905161119 80 302 3.0 4.0 0.00 0.00 0.00 46 1012.8
20260905161031 80 240 5.0 8.0 0.00 0.00 0.00 47 1012.6
20260905160926 80 301 2.0 3.0 0.00 0.00 0.00 48 1012.8
20260905160821 79 308 1.0 2.0 0.00 0.00 0.00 49 1012.9
20260905160737 79 302 2.0 3.0 0.00 0.00 0.00 49 1012.9
20260905160649 79 326 0.0 1.0 0.00 0.00 0.00 49 1012.7
20260905160524 79 311 3.0 4.0 0.00 0.00 0.00 48 1012.9
20260905160420 79 289 5.0 8.0 0.00 0.00 0.00 49 1012.7
20260905160315 79 348 1.0 3.0 0.00 0.00 0.00 50 1012.6
20260905160227 78 32 0.0 1.0 0.00 0.00 0.00 51 1012.8
20260905160143 78 33 0.0 1.0 0.00 0.00 0.00 50 1012.9
20260905160018 78 33 1.0 2.0 0.00 0.00 0.00 51 1012.7
20260905155950 78 78 2.0 2.0 0.00 0.00 0.00 51 1012.7
20260905155825 78 231 1.0 1.0 0.00 0.00 0.00 50 1012.7
20260905155721 78 248 2.0 2.0 0.00 0.00 0.00 50 1012.6
20260905155616 78 278 1.0 1.0 0.00 0.00 0.00 50 1012.7
20260905155528 78 277 3.0 6.0 0.00 0.00 0.00 50 1012.9
20260905155424 78 256 3.0 7.0 0.00 0.00 0.00 49 1012.8
20260905155339 78 289 3.0 4.0 0.00 0.00 0.00 49 1012.7
20260905155231 78 308 4.0 8.0 0.00 0.00 0.00 48 1012.7
20260905155146 78 278 3.0 4.0 0.00 0.00 0.00 48 1012.8
20260905155022 79 271 4.0 7.0 0.00 0.00 0.00 48 1012.7
20260905154938 79 293 3.0 4.0 0.00 0.00 0.00 48 1012.9
20260905154829 79 267 4.0 6.0 0.00 0.00 0.00 49 1012.7
20260905154725 79 247 4.0 8.0 0.00 0.00 0.00 50 1012.8
20260905154620 79 258 5.0 7.0 0.00 0.00 0.00 50 1012.8
20260905154516 79 277 4.0 7.0 0.00 0.00 0.00 51 1012.8
20260905154448 79 293 2.0 3.0 0.00 0.00 0.00 51 1012.6
20260905154343 79 280 4.0 8.0 0.00 0.00 0.00 51 1012.7
20260905154239 79 251 3.0 6.0 0.00 0.00 0.00 50 1012.7
20260905154130 79 302 2.0 2.0 0.00 0.00 0.00 49 1012.7
20260905154025 79 311 2.0 3.0 0.00 0.00 0.00 48 1012.6
20260905153921 79 321 3.0 4.0 0.00 0.00 0.00 48 1012.6
20260905153836 79 297 5.0 8.0 0.00 0.00 0.00 49 1012.5
20260905153748 79 267 4.0 8.0 0.00 0.00 0.00 50 1012.8
20260905153623 79 284 2.0 4.0 0.00 0.00 0.00 50 1012.8
20260905153519 79 274 2.0 4.0 0.00 0.00 0.00 51 1012.6
20260905153431 79 304 4.0 6.0 0.00 0.00 0.00 52 1012.7
20260905153346 79 243 3.0 6.0 0.00 0.00 0.00 52 1012.6
20260905153221 79 342 3.0 6.0 0.00 0.00 0.00 50 1012.7
20260905153117 79 290 3.0 6.0 0.00 0.00 0.00 51 1012.6
20260905153029 79 346 2.0 4.0 0.00 0.00 0.00 51 1012.7
20260905152944 79 296 2.0 4.0 0.00 0.00 0.00 50 1012.7
20260905152820 79 302 2.0 2.0 0.00 0.00 0.00 49 1012.7
20260905152715 79 281 3.0 7.0 0.00 0.00 0.00 49 1012.7
20260905152627 79 326 4.0 8.0 0.00 0.00 0.00 48 1012.6
20260905152542 80 309 7.0 9.0 0.00 0.00 0.00 49 1012.7
20260905152418 80 303 5.0 8.0 0.00 0.00 0.00 48 1012.8
20260905152330 80 322 4.0 7.0 0.00 0.00 0.00 49 1012.7
20260905152225 80 302 4.0 8.0 0.00 0.00 0.00 50 1012.6
20260905152121 80 322 2.0 3.0 0.00 0.00 0.00 50 1012.7
20260905152016 80 300 4.0 9.0 0.00 0.00 0.00 50 1012.7
20260905151928 80 320 2.0 6.0 0.00 0.00 0.00 49 1012.8
20260905151823 80 268 2.0 4.0 0.00 0.00 0.00 49 1012.8
20260905151719 81 298 3.0 4.0 0.00 0.00 0.00 49 1012.6
20260905151630 81 304 4.0 6.0 0.00 0.00 0.00 48 1012.7
20260905151526 81 342 2.0 4.0 0.00 0.00 0.00 49 1012.7
20260905151421 81 356 2.0 3.0 0.00 0.00 0.00 48 1012.7
20260905151317 81 322 4.0 7.0 0.00 0.00 0.00 48 1012.7
20260905151229 81 301 3.0 9.0 0.00 0.00 0.00 49 1012.8
20260905151124 81 30 2.0 2.0 0.00 0.00 0.00 48 1012.7
20260905151020 81 301 3.0 7.0 0.00 0.00 0.00 48 1012.6
20260905150915 81 295 2.0 4.0 0.00 0.00 0.00 48 1012.8
20260905150827 81 328 3.0 6.0 0.00 0.00 0.00 51 1012.8
20260905150742 80 313 2.0 3.0 0.00 0.00 0.00 51 1012.9
20260905150638 80 296 3.0 4.0 0.00 0.00 0.00 49 1012.9
20260905150529 80 269 3.0 4.0 0.00 0.00 0.00 49 1012.7
20260905150425 80 235 3.0 4.0 0.00 0.00 0.00 50 1012.8
20260905150320 80 271 4.0 8.0 0.00 0.00 0.00 50 1012.9
20260905150216 80 259 3.0 7.0 0.00 0.00 0.00 50 1012.8
20260905150128 80 334 1.0 4.0 0.00 0.00 0.00 51 1012.7
20260905150023 80 333 3.0 4.0 0.00 0.00 0.00 52 1012.8
20260905145919 80 310 4.0 9.0 0.00 0.00 0.00 53 1012.7
20260905145830 79 292 5.0 9.0 0.00 0.00 0.00 53 1012.7
20260905145725 79 308 4.0 7.0 0.00 0.00 0.00 53 1012.8
20260905145621 79 256 4.0 7.0 0.00 0.00 0.00 53 1012.6
20260905145517 79 292 3.0 7.0 0.00 0.00 0.00 52 1012.7
20260905145448 79 291 6.0 9.0 0.00 0.00 0.00 52 1012.7
20260905145324 78 310 5.0 7.0 0.00 0.00 0.00 53 1012.7
20260905145319 78 266 3.0 7.0 0.00 0.00 0.00 53 1012.5
20260905145131 78 327 4.0 6.0 0.00 0.00 0.00 53 1012.6
20260905145026 78 292 2.0 3.0 0.00 0.00 0.00 53 1012.5
20260905145002 79 236 5.0 8.0 0.00 0.00 0.00 54 1012.6
20260905144838 79 296 5.0 7.0 0.00 0.00 0.00 55 1012.7
20260905144730 79 290 7.0 9.0 0.00 0.00 0.00 55 1012.5
20260905144625 79 267 4.0 7.0 0.00 0.00 0.00 53 1012.6
20260905144541 79 239 2.0 6.0 0.00 0.00 0.00 53 1012.7
20260905144416 79 253 4.0 9.0 0.00 0.00 0.00 52 1012.6
20260905144328 79 245 3.0 4.0 0.00 0.00 0.00 53 1012.8
20260905144223 79 280 2.0 4.0 0.00 0.00 0.00 52 1012.7
20260905144119 79 249 4.0 6.0 0.00 0.00 0.00 51 1012.6
20260905144031 79 242 5.0 7.0 0.00 0.00 0.00 52 1012.8
20260905143946 80 267 4.0 6.0 0.00 0.00 0.00 51 1012.8
20260905143821 80 268 5.0 9.0 0.00 0.00 0.00 52 1012.7
20260905143737 80 271 2.0 8.0 0.00 0.00 0.00 52 1012.6
20260905143629 80 319 3.0 6.0 0.00 0.00 0.00 51 1012.7
20260905143524 80 275 5.0 8.0 0.00 0.00 0.00 50 1012.7
20260905143420 80 257 5.0 8.0 0.00 0.00 0.00 50 1012.7
20260905143315 81 328 4.0 6.0 0.00 0.00 0.00 50 1012.6
20260905143227 81 317 3.0 7.0 0.00 0.00 0.00 50 1012.6
20260905143142 81 302 4.0 7.0 0.00 0.00 0.00 50 1012.6
20260905143058 81 298 5.0 7.0 0.00 0.00 0.00 50 1012.5
20260905142929 81 292 4.0 7.0 0.00 0.00 0.00 49 1012.7
20260905142825 81 290 5.0 9.0 0.00 0.00 0.00 49 1012.7
20260905142720 81 306 3.0 4.0 0.00 0.00 0.00 49 1012.5
20260905142636 82 324 3.0 6.0 0.00 0.00 0.00 49 1012.7
20260905142528 82 308 5.0 9.0 0.00 0.00 0.00 49 1012.7
20260905142423 82 279 3.0 4.0 0.00 0.00 0.00 48 1012.7
20260905142319 82 258 2.0 3.0 0.00 0.00 0.00 48 1012.5
20260905142230 82 294 4.0 9.0 0.00 0.00 0.00 48 1012.6
20260905142125 82 269 4.0 8.0 0.00 0.00 0.00 47 1012.5
20260905142021 83 297 2.0 3.0 0.00 0.00 0.00 48 1012.4
20260905141916 83 278 2.0 4.0 0.00 0.00 0.00 49 1012.5
20260905141848 83 259 2.0 3.0 0.00 0.00 0.00 49 1012.5
20260905141744 83 328 2.0 3.0 0.00 0.00 0.00 49 1012.6
20260905141619 83 278 2.0 7.0 0.00 0.00 0.00 48 1012.6
20260905141531 82 229 3.0 4.0 0.00 0.00 0.00 48 1012.5
20260905141427 82 304 4.0 6.0 0.00 0.00 0.00 49 1012.6
20260905141342 82 271 3.0 6.0 0.00 0.00 0.00 49 1012.5
20260905141218 82 312 4.0 6.0 0.00 0.00 0.00 48 1012.4
20260905141129 82 284 3.0 6.0 0.00 0.00 0.00 49 1012.5
20260905141025 82 303 4.0 9.0 0.00 0.00 0.00 48 1012.6
20260905140940 82 280 6.0 10.0 0.00 0.00 0.00 47 1012.5
20260905140816 82 246 4.0 7.0 0.00 0.00 0.00 47 1012.5
20260905140727 82 263 4.0 9.0 0.00 0.00 0.00 48 1012.6
20260905140643 82 263 3.0 4.0 0.00 0.00 0.00 48 1012.4
20260905140519 82 283 6.0 8.0 0.00 0.00 0.00 48 1012.5
20260905140450 82 286 4.0 8.0 0.00 0.00 0.00 48 1012.6
20260905140326 82 263 5.0 9.0 0.00 0.00 0.00 48 1012.6
20260905140241 82 291 4.0 8.0 0.00 0.00 0.00 49 1012.5
20260905140117 82 298 4.0 6.0 0.00 0.00 0.00 48 1012.6
20260905140029 82 325 3.0 7.0 0.00 0.00 0.00 47 1012.6
20260905135924 83 247 5.0 9.0 0.00 0.00 0.00 47 1012.5
20260905135820 83 311 5.0 7.0 0.00 0.00 0.00 47 1012.5
20260905135716 83 301 4.0 8.0 0.00 0.00 0.00 48 1012.5
20260905135627 83 244 3.0 6.0 0.00 0.00 0.00 47 1012.5
20260905135523 83 305 4.0 6.0 0.00 0.00 0.00 48 1012.6
20260905135438 83 278 3.0 6.0 0.00 0.00 0.00 46 1012.6
20260905135330 83 308 6.0 9.0 0.00 0.00 0.00 47 1012.5
20260905135225 83 330 4.0 8.0 0.00 0.00 0.00 47 1012.4
20260905135120 83 299 5.0 9.0 0.00 0.00 0.00 46 1012.5
20260905135016 83 267 3.0 3.0 0.00 0.00 0.00 47 1012.3
20260905134928 83 273 2.0 4.0 0.00 0.00 0.00 47 1012.4
20260905134823 83 312 4.0 7.0 0.00 0.00 0.00 47 1012.4
20260905134719 83 312 3.0 6.0 0.00 0.00 0.00 46 1012.5
20260905134651 83 252 3.0 6.0 0.00 0.00 0.00 46 1012.3
20260905134526 84 249 4.0 7.0 0.00 0.00 0.00 46 1012.4
20260905134422 84 277 2.0 4.0 0.00 0.00 0.00 46 1012.5
20260905134337 84 291 2.0 3.0 0.00 0.00 0.00 47 1012.4
20260905134249 84 300 2.0 4.0 0.00 0.00 0.00 46 1012.4
20260905134124 84 309 4.0 6.0 0.00 0.00 0.00 45 1012.5
20260905134040 84 270 3.0 4.0 0.00 0.00 0.00 45 1012.5
20260905133915 84 263 4.0 7.0 0.00 0.00 0.00 46 1012.4
20260905133847 84 333 3.0 4.0 0.00 0.00 0.00 49 1012.5
20260905133723 84 344 2.0 2.0 0.00 0.00 0.00 47 1012.5
20260905133619 84 337 2.0 3.0 0.00 0.00 0.00 48 1012.4
20260905133530 84 295 3.0 6.0 0.00 0.00 0.00 50 1012.5
20260905133426 83 330 0.0 1.0 0.00 0.00 0.00 50 1012.4
20260905133321 83 330 1.0 2.0 0.00 0.00 0.00 49 1012.4
20260905133217 83 258 1.0 1.0 0.00 0.00 0.00 48 1012.3
20260905133128 83 240 2.0 3.0 0.00 0.00 0.00 48 1012.5
20260905133024 83 285 2.0 4.0 0.00 0.00 0.00 48 1012.5
20260905132920 83 316 3.0 3.0 0.00 0.00 0.00 48 1012.6
20260905132855 83 322 3.0 4.0 0.00 0.00 0.00 49 1012.4
20260905132747 83 294 1.0 2.0 0.00 0.00 0.00 49 1012.5
20260905132623 82 295 2.0 3.0 0.00 0.00 0.00 49 1012.4
20260905132518 82 225 1.0 2.0 0.00 0.00 0.00 51 1012.5
20260905132429 82 254 2.0 3.0 0.00 0.00 0.00 53 1012.5
20260905132337 82 289 1.0 2.0 0.00 0.00 0.00 53 1012.5
20260905132220 82 294 1.0 3.0 0.00 0.00 0.00 53 1012.6
20260905132136 81 289 2.0 2.0 0.00 0.00 0.00 52 1012.5
20260905132028 81 273 1.0 2.0 0.00 0.00 0.00 51 1012.6
20260905131923 81 242 2.0 6.0 0.00 0.00 0.00 51 1012.7
20260905131819 81 291 3.0 6.0 0.00 0.00 0.00 51 1012.8
20260905131730 81 299 3.0 4.0 0.00 0.00 0.00 51 1012.5
20260905131626 81 283 3.0 4.0 0.00 0.00 0.00 52 1012.6
20260905131522 80 245 3.0 4.0 0.00 0.00 0.00 52 1012.4
20260905131417 80 303 4.0 7.0 0.00 0.00 0.00 53 1012.6
20260905131329 80 305 3.0 6.0 0.00 0.00 0.00 54 1012.6
20260905131224 80 306 4.0 6.0 0.00 0.00 0.00 53 1012.6
20260905131120 80 283 2.0 3.0 0.00 0.00 0.00 52 1012.5
20260905131015 80 300 2.0 3.0 0.00 0.00 0.00 52 1012.6
20260905130927 81 260 3.0 4.0 0.00 0.00 0.00 51 1012.7
20260905130843 81 234 4.0 6.0 0.00 0.00 0.00 51 1012.7
20260905130718 81 253 5.0 7.0 0.00 0.00 0.00 51 1012.7
20260905130629 81 277 4.0 7.0 0.00 0.00 0.00 52 1012.8
20260905130525 81 251 2.0 4.0 0.00 0.00 0.00 55 1012.7
20260905130421 80 306 1.0 3.0 0.00 0.00 0.00 56 1012.6
20260905130316 80 353 0.0 1.0 0.00 0.00 0.00 55 1012.8
20260905130248 80 345 1.0 2.0 0.00 0.00 0.00 55 1012.7
20260905130123 80 307 2.0 3.0 0.00 0.00 0.00 55 1012.7
20260905130019 79 306 2.0 4.0 0.00 0.00 0.00 55 1012.5
20260905125931 79 313 3.0 6.0 0.00 0.00 0.00 55 1012.8
20260905125826 79 324 4.0 6.0 0.00 0.00 0.00 56 1012.9
20260905125722 79 316 3.0 6.0 0.00 0.00 0.00 56 1013.0
20260905125618 79 325 3.0 6.0 0.00 0.00 0.00 56 1012.8
20260905125529 79 248 1.0 2.0 0.00 0.00 0.00 55 1012.8
20260905125425 79 232 2.0 3.0 0.00 0.00 0.00 55 1012.7
20260905125320 78 236 2.0 3.0 0.00 0.00 0.00 56 1012.8
20260905125236 78 255 1.0 3.0 0.00 0.00 0.00 56 1012.9
20260905125127 78 274 2.0 4.0 0.00 0.00 0.00 56 1013.0
20260905125023 78 249 2.0 4.0 0.00 0.00 0.00 57 1013.0
20260905124938 78 278 1.0 2.0 0.00 0.00 0.00 58 1012.8
20260905124830 78 253 3.0 6.0 0.00 0.00 0.00 57 1012.9
20260905124726 78 333 3.0 4.0 0.00 0.00 0.00 57 1012.9
20260905124621 78 301 2.0 2.0 0.00 0.00 0.00 56 1012.7
20260905124517 78 259 2.0 3.0 0.00 0.00 0.00 57 1013.1
20260905124428 78 237 3.0 6.0 0.00 0.00 0.00 58 1013.0
20260905124324 78 316 5.0 7.0 0.00 0.00 0.00 58 1013.1
20260905124220 78 305 2.0 4.0 0.00 0.00 0.00 58 1012.9
20260905124135 78 250 1.0 3.0 0.00 0.00 0.00 58 1012.9
20260905124027 78 253 1.0 2.0 0.00 0.00 0.00 58 1012.9
20260905123922 77 274 1.0 2.0 0.00 0.00 0.00 58 1013.0
20260905123818 77 240 4.0 7.0 0.00 0.00 0.00 57 1013.1
20260905123750 77 254 3.0 6.0 0.00 0.00 0.00 58 1013.0
20260905123625 77 296 3.0 6.0 0.00 0.00 0.00 58 1013.0
20260905123521 77 245 3.0 4.0 0.00 0.00 0.00 58 1013.0
20260905123416 77 285 2.0 4.0 0.00 0.00 0.00 59 1012.8
20260905123328 77 295 3.0 4.0 0.00 0.00 0.00 61 1013.0
20260905123224 77 273 1.0 2.0 0.00 0.00 0.00 61 1013.1
20260905123119 76 313 1.0 1.0 0.00 0.00 0.00 62 1013.1
20260905123015 76 314 1.0 3.0 0.00 0.00 0.00 61 1012.9
20260905122947 76 322 1.0 2.0 0.00 0.00 0.00 62 1012.9
20260905122822 75 327 2.0 2.0 0.00 0.00 0.00 62 1013.1
20260905122718 75 300 2.0 3.0 0.00 0.00 0.00 62 1013.2
20260905122629 75 298 2.0 3.0 0.00 0.00 0.00 62 1012.9
20260905122525 75 268 2.0 3.0 0.00 0.00 0.00 62 1013.2
20260905122420 75 292 5.0 8.0 0.00 0.00 0.00 61 1013.2
20260905122316 75 279 4.0 6.0 0.00 0.00 0.00 61 1013.1
20260905122228 75 255 4.0 6.0 0.00 0.00 0.00 61 1013.2
20260905122123 75 278 4.0 7.0 0.00 0.00 0.00 61 1013.0
20260905122019 75 312 5.0 7.0 0.00 0.00 0.00 61 1013.0
20260905121931 75 302 5.0 8.0 0.00 0.00 0.00 62 1013.2
20260905121826 75 315 6.0 9.0 0.00 0.00 0.00 62 1013.3
20260905121721 74 298 6.0 8.0 0.00 0.00 0.00 63 1013.3
20260905121637 74 290 2.0 7.0 0.00 0.00 0.00 64 1013.4
20260905121529 74 292 2.0 6.0 0.00 0.00 0.00 65 1013.4
20260905121424 74 289 3.0 4.0 0.00 0.00 0.00 64 1013.4
20260905121320 73 282 4.0 6.0 0.00 0.00 0.00 65 1013.4
20260905121215 73 287 4.0 6.0 0.00 0.00 0.00 66 1013.3
20260905121127 73 284 3.0 7.0 0.00 0.00 0.00 66 1013.4
20260905121022 73 265 2.0 4.0 0.00 0.00 0.00 66 1013.2
20260905120918 73 280 2.0 3.0 0.00 0.00 0.00 65 1013.2
20260905120830 72 245 4.0 6.0 0.00 0.00 0.00 66 1013.3
20260905120726 72 292 4.0 7.0 0.00 0.00 0.00 67 1013.3
20260905120641 72 266 5.0 7.0 0.00 0.00 0.00 66 1013.1
20260905120516 72 255 3.0 6.0 0.00 0.00 0.00 67 1013.3
20260905120428 71 251 3.0 4.0 0.00 0.00 0.00 68 1013.4
20260905120323 71 300 2.0 3.0 0.00 0.00 0.00 68 1013.4
20260905120219 71 270 3.0 6.0 0.00 0.00 0.00 68 1013.1
20260905120131 71 278 4.0 6.0 0.00 0.00 0.00 68 1013.1
20260905120027 71 240 4.0 7.0 0.00 0.00 0.00 69 1012.9
20260905115922 71 265 3.0 6.0 0.00 0.00 0.00 69 1013.1
20260905115818 71 246 5.0 9.0 0.00 0.00 0.00 69 1013.1
20260905115729 71 245 4.0 7.0 0.00 0.00 0.00 70 1013.1
20260905115625 70 236 2.0 4.0 0.00 0.00 0.00 70 1013.1
20260905115520 70 272 1.0 3.0 0.00 0.00 0.00 70 1013.0
20260905115416 70 289 1.0 2.0 0.00 0.00 0.00 70 1013.0
20260905115348 70 296 2.0 3.0 0.00 0.00 0.00 69 1012.9
20260905115223 70 305 3.0 6.0 0.00 0.00 0.00 69 1013.1
20260905115139 70 285 3.0 4.0 0.00 0.00 0.00 69 1013.1
20260905115031 70 242 4.0 6.0 0.00 0.00 0.00 69 1013.0
20260905114926 70 256 3.0 6.0 0.00 0.00 0.00 70 1013.0
20260905114821 70 309 3.0 4.0 0.00 0.00 0.00 69 1013.0
20260905114716 70 306 3.0 6.0 0.00 0.00 0.00 70 1013.1
20260905114628 70 321 2.0 3.0 0.00 0.00 0.00 69 1013.1
20260905114524 70 323 4.0 8.0 0.00 0.00 0.00 69 1013.1
20260905114419 70 306 3.0 4.0 0.00 0.00 0.00 69 1013.1
20260905114315 70 283 4.0 7.0 0.00 0.00 0.00 69 1013.0
20260905114227 70 253 3.0 4.0 0.00 0.00 0.00 69 1013.1
20260905114122 70 296 3.0 4.0 0.00 0.00 0.00 69 1013.0
20260905114018 70 250 3.0 4.0 0.00 0.00 0.00 69 1012.9
20260905113929 70 287 3.0 4.0 0.00 0.00 0.00 69 1013.0
20260905113825 70 308 4.0 7.0 0.00 0.00 0.00 69 1013.0
20260905113720 70 291 3.0 7.0 0.00 0.00 0.00 69 1013.0
20260905113616 70 254 1.0 1.0 0.00 0.00 0.00 69 1012.9
20260905113528 70 250 2.0 3.0 0.00 0.00 0.00 69 1012.7
20260905113423 70 247 2.0 3.0 0.00 0.00 0.00 68 1012.8
20260905113319 70 247 4.0 6.0 0.00 0.00 0.00 68 1012.9
20260905113231 70 238 5.0 7.0 0.00 0.00 0.00 69 1012.8
20260905113126 70 248 4.0 4.0 0.00 0.00 0.00 69 1012.8
20260905113021 70 280 2.0 3.0 0.00 0.00 0.00 69 1012.9
20260905112917 70 241 3.0 6.0 0.00 0.00 0.00 69 1012.8
20260905112828 70 255 2.0 3.0 0.00 0.00 0.00 69 1012.7
20260905112744 70 237 3.0 4.0 0.00 0.00 0.00 69 1012.8
20260905112620 70 241 3.0 4.0 0.00 0.00 0.00 69 1012.8
20260905112535 70 286 2.0 4.0 0.00 0.00 0.00 69 1012.7
20260905112427 70 281 1.0 1.0 0.00 0.00 0.00 69 1012.7
20260905112322 70 296 2.0 2.0 0.00 0.00 0.00 69 1012.8
20260905112218 70 288 2.0 2.0 0.00 0.00 0.00 69 1012.6
20260905112129 70 253 4.0 6.0 0.00 0.00 0.00 69 1012.7
20260905112025 70 249 3.0 4.0 0.00 0.00 0.00 70 1012.8
20260905111940 70 266 3.0 4.0 0.00 0.00 0.00 70 1012.6
20260905111856 70 292 3.0 6.0 0.00 0.00 0.00 69 1012.6
20260905111728 70 251 3.0 4.0 0.00 0.00 0.00 69 1012.5
20260905111623 70 248 3.0 4.0 0.00 0.00 0.00 69 1012.6
20260905111518 70 241 3.0 4.0 0.00 0.00 0.00 69 1012.7
20260905111430 70 310 1.0 2.0 0.00 0.00 0.00 70 1012.6
20260905111345 70 315 2.0 4.0 0.00 0.00 0.00 69 1012.6
20260905111241 70 304 4.0 7.0 0.00 0.00 0.00 69 1012.6
20260905111116 70 304 2.0 4.0 0.00 0.00 0.00 69 1012.6
20260905111108 70 305 2.0 2.0 0.00 0.00 0.00 69 1012.7
20260905110924 70 305 2.0 4.0 0.00 0.00 0.00 69 1012.5
20260905110819 70 306 1.0 1.0 0.00 0.00 0.00 69 1012.4
20260905110751 70 306 1.0 2.0 0.00 0.00 0.00 69 1012.6
20260905110626 70 307 1.0 2.0 0.00 0.00 0.00 69 1012.5
20260905110542 70 305 1.0 2.0 0.00 0.00 0.00 68 1012.6
20260905110418 70 266 1.0 1.0 0.00 0.00 0.00 68 1012.5
20260905110329 70 0.0 0.0 0.00 0.00 0.00 68 1012.5
20260905110305 70 266 0.0 1.0 0.00 0.00 0.00 68 1012.4
20260905110121 70 265 1.0 1.0 0.00 0.00 0.00 69 1012.4
20260905110016 70 264 2.0 3.0 0.00 0.00 0.00 69 1012.5
20260905105928 70 307 2.0 3.0 0.00 0.00 0.00 68 1012.4
20260905105823 70 293 2.0 2.0 0.00 0.00 0.00 69 1012.5
20260905105719 70 270 1.0 2.0 0.00 0.00 0.00 68 1012.3
20260905105651 70 250 2.0 2.0 0.00 0.00 0.00 69 1012.3
20260905105526 70 283 2.0 2.0 0.00 0.00 0.00 69 1012.2
20260905105421 70 307 2.0 3.0 0.00 0.00 0.00 68 1012.1
20260905105317 70 296 2.0 4.0 0.00 0.00 0.00 68 1012.4
20260905105228 70 283 1.0 2.0 0.00 0.00 0.00 68 1012.2
20260905105124 70 280 1.0 2.0 0.00 0.00 0.00 68 1012.3
20260905105020 70 277 1.0 2.0 0.00 0.00 0.00 68 1012.3
20260905104915 70 257 2.0 6.0 0.00 0.00 0.00 68 1012.2
20260905104827 70 292 2.0 4.0 0.00 0.00 0.00 68 1012.4
20260905104722 70 263 1.0 1.0 0.00 0.00 0.00 68 1012.3
20260905104618 70 263 1.0 1.0 0.00 0.00 0.00 68 1012.5
20260905104530 70 263 1.0 1.0 0.00 0.00 0.00 68 1012.0
20260905104425 70 262 2.0 3.0 0.00 0.00 0.00 68 1012.1
20260905104321 70 307 1.0 2.0 0.00 0.00 0.00 68 1012.1
20260905104216 70 309 2.0 2.0 0.00 0.00 0.00 68 1012.1
20260905104128 70 309 1.0 1.0 0.00 0.00 0.00 68 1012.2
20260905104023 70 311 2.0 2.0 0.00 0.00 0.00 68 1012.0
20260905103919 70 320 2.0 2.0 0.00 0.00 0.00 68 1012.0
20260905103831 70 320 1.0 3.0 0.00 0.00 0.00 68 1012.0
20260905103746 70 322 1.0 2.0 0.00 0.00 0.00 68 1012.1
20260905103621 70 321 2.0 2.0 0.00 0.00 0.00 67 1012.1
20260905103517 70 328 1.0 3.0 0.00 0.00 0.00 68 1012.2
20260905103448 70 309 1.0 2.0 0.00 0.00 0.00 68 1012.1
20260905103344 70 309 0.0 1.0 0.00 0.00 0.00 67 1012.2
20260905103220 70 0.0 0.0 0.00 0.00 0.00 67 1012.2
20260905103115 70 0.0 0.0 0.00 0.00 0.00 67 1012.2
20260905103047 70 309 1.0 1.0 0.00 0.00 0.00 67 1012.0
20260905103002 70 310 2.0 2.0 0.00 0.00 0.00 67 1012.1
20260905102818 70 321 2.0 3.0 0.00 0.00 0.00 67 1011.9
20260905102730 70 322 2.0 3.0 0.00 0.00 0.00 66 1012.0
20260905102625 70 310 1.0 2.0 0.00 0.00 0.00 66 1012.0
20260905102520 70 309 0.0 1.0 0.00 0.00 0.00 67 1012.0
20260905102416 70 309 0.0 1.0 0.00 0.00 0.00 67 1012.1
20260905102328 70 309 0.0 1.0 0.00 0.00 0.00 67 1012.0
20260905102244 70 309 1.0 1.0 0.00 0.00 0.00 67 1012.1
20260905102119 71 313 1.0 2.0 0.00 0.00 0.00 67 1012.1
20260905102030 71 321 1.0 2.0 0.00 0.00 0.00 67 1012.0
20260905101925 71 321 2.0 3.0 0.00 0.00 0.00 67 1012.1
20260905101841 71 311 3.0 6.0 0.00 0.00 0.00 67 1012.0
20260905101717 71 326 1.0 2.0 0.00 0.00 0.00 67 1011.9
20260905101628 71 348 1.0 1.0 0.00 0.00 0.00 67 1012.1
20260905101524 71 344 1.0 3.0 0.00 0.00 0.00 67 1012.1
20260905101420 71 319 2.0 3.0 0.00 0.00 0.00 67 1012.2
20260905101315 71 321 1.0 1.0 0.00 0.00 0.00 66 1012.1
20260905101247 71 321 1.0 2.0 0.00 0.00 0.00 66 1011.8
20260905101122 71 321 1.0 2.0 0.00 0.00 0.00 67 1012.0
20260905101018 71 322 1.0 2.0 0.00 0.00 0.00 66 1012.1
20260905100929 71 309 2.0 3.0 0.00 0.00 0.00 66 1012.1
20260905100845 71 252 2.0 4.0 0.00 0.00 0.00 67 1012.0
20260905100721 71 262 0.0 1.0 0.00 0.00 0.00 67 1012.0
20260905100616 71 261 2.0 3.0 0.00 0.00 0.00 67 1012.2
20260905100548 71 323 1.0 2.0 0.00 0.00 0.00 66 1012.3
20260905100424 71 323 1.0 1.0 0.00 0.00 0.00 66 1012.2
20260905100359 71 323 1.0 1.0 0.00 0.00 0.00 66 1012.2
20260905100231 71 323 1.0 1.0 0.00 0.00 0.00 66 1012.0
20260905100126 71 324 0.0 1.0 0.00 0.00 0.00 66 1012.0
20260905100021 71 324 0.0 1.0 0.00 0.00 0.00 66 1012.0
20260905095937 71 324 0.0 1.0 0.00 0.00 0.00 66 1012.0
20260905095828 71 324 1.0 2.0 0.00 0.00 0.00 66 1012.1
20260905095724 71 322 2.0 3.0 0.00 0.00 0.00 66 1012.0
20260905095620 71 323 2.0 2.0 0.00 0.00 0.00 66 1012.0
20260905095515 71 320 2.0 3.0 0.00 0.00 0.00 65 1011.9
20260905095447 71 319 1.0 1.0 0.00 0.00 0.00 65 1012.0
20260905095322 71 319 0.0 1.0 0.00 0.00 0.00 66 1011.9
20260905095218 71 318 1.0 2.0 0.00 0.00 0.00 66 1012.0
20260905095150 71 331 1.0 1.0 0.00 0.00 0.00 66 1012.1
20260905095025 71 330 1.0 2.0 0.00 0.00 0.00 66 1012.0
20260905094921 71 330 1.0 2.0 0.00 0.00 0.00 65 1011.9
20260905094816 71 331 1.0 1.0 0.00 0.00 0.00 65 1012.0
20260905094728 71 330 1.0 2.0 0.00 0.00 0.00 65 1012.0
20260905094623 71 331 1.0 2.0 0.00 0.00 0.00 65 1012.0
20260905094519 71 331 0.0 1.0 0.00 0.00 0.00 65 1012.0
20260905094431 71 331 0.0 1.0 0.00 0.00 0.00 65 1011.9
20260905094326 71 331 1.0 2.0 0.00 0.00 0.00 65 1012.0
20260905094222 71 331 2.0 2.0 0.00 0.00 0.00 65 1012.0
20260905094117 71 321 2.0 4.0 0.00 0.00 0.00 65 1011.9
20260905094029 71 303 1.0 2.0 0.00 0.00 0.00 65 1011.9
20260905093924 71 302 0.0 2.0 0.00 0.00 0.00 65 1012.1
20260905093820 71 298 1.0 1.0 0.00 0.00 0.00 65 1011.9
20260905093715 71 288 1.0 3.0 0.00 0.00 0.00 65 1011.9
20260905093707 71 301 2.0 2.0 0.00 0.00 0.00 65 1012.0
20260905093522 71 270 2.0 2.0 0.00 0.00 0.00 65 1011.9
20260905093418 71 249 1.0 1.0 0.00 0.00 0.00 65 1011.8
20260905093330 71 250 1.0 2.0 0.00 0.00 0.00 65 1011.9
20260905093225 71 248 0.0 1.0 0.00 0.00 0.00 64 1011.9
20260905093121 71 0.0 0.0 0.00 0.00 0.00 64 1011.9
20260905093016 71 0.0 0.0 0.00 0.00 0.00 64 1011.9
20260905092948 71 248 0.0 1.0 0.00 0.00 0.00 64 1012.0
20260905092823 71 248 0.0 1.0 0.00 0.00 0.00 64 1011.8
20260905092719 71 248 2.0 2.0 0.00 0.00 0.00 64 1011.9
20260905092710 71 257 2.0 3.0 0.00 0.00 0.00 65 1012.0
20260905092546 71 296 2.0 3.0 0.00 0.00 0.00 64 1012.1
20260905092421 71 302 3.0 6.0 0.00 0.00 0.00 64 1011.9
20260905092317 71 300 2.0 3.0 0.00 0.00 0.00 64 1011.9
20260905092229 71 244 1.0 2.0 0.00 0.00 0.00 64 1012.0
20260905092204 71 245 1.0 1.0 0.00 0.00 0.00 64 1011.8
20260905092019 71 244 1.0 2.0 0.00 0.00 0.00 64 1011.7
20260905091936 71 240 2.0 3.0 0.00 0.00 0.00 64 1011.8
20260905091827 71 304 1.0 1.0 0.00 0.00 0.00 64 1012.0
20260905091742 71 304 1.0 2.0 0.00 0.00 0.00 64 1012.0
20260905091618 71 303 2.0 3.0 0.00 0.00 0.00 64 1012.1
20260905091530 71 319 2.0 4.0 0.00 0.00 0.00 64 1011.9
20260905091425 71 315 2.0 3.0 0.00 0.00 0.00 64 1011.9
20260905091321 71 302 2.0 3.0 0.00 0.00 0.00 64 1012.0
20260905091216 71 300 2.0 3.0 0.00 0.00 0.00 64 1011.8
20260905091208 71 298 3.0 4.0 0.00 0.00 0.00 64 1011.9
20260905091024 72 302 2.0 7.0 0.00 0.00 0.00 64 1011.8
20260905090919 72 292 1.0 1.0 0.00 0.00 0.00 64 1011.8
20260905090911 72 308 1.0 2.0 0.00 0.00 0.00 64 1011.9
20260905090726 72 328 1.0 1.0 0.00 0.00 0.00 64 1011.7
20260905090621 72 328 1.0 2.0 0.00 0.00 0.00 64 1011.6
20260905090517 72 330 1.0 2.0 0.00 0.00 0.00 64 1012.0
20260905090428 72 334 2.0 4.0 0.00 0.00 0.00 63 1011.9
20260905090324 72 284 2.0 3.0 0.00 0.00 0.00 64 1011.8
20260905090220 72 307 2.0 2.0 0.00 0.00 0.00 63 1011.9
20260905090115 72 259 2.0 2.0 0.00 0.00 0.00 64 1011.8
20260905090027 72 240 2.0 3.0 0.00 0.00 0.00 63 1011.7
20260905085922 72 274 1.0 2.0 0.00 0.00 0.00 63 1011.7
20260905085838 72 306 2.0 3.0 0.00 0.00 0.00 63 1011.9
20260905085730 72 267 2.0 3.0 0.00 0.00 0.00 63 1011.8
20260905085625 72 308 3.0 4.0 0.00 0.00 0.00 63 1011.9
20260905085541 72 275 3.0 3.0 0.00 0.00 0.00 63 1011.8
20260905085416 72 255 1.0 2.0 0.00 0.00 0.00 63 1011.7
20260905085328 72 280 2.0 2.0 0.00 0.00 0.00 63 1011.8
20260905085223 72 244 2.0 3.0 0.00 0.00 0.00 63 1011.8
20260905085119 72 299 1.0 2.0 0.00 0.00 0.00 63 1011.7
20260905085031 72 305 2.0 3.0 0.00 0.00 0.00 63 1011.8
20260905084926 72 311 1.0 1.0 0.00 0.00 0.00 63 1011.9
20260905084821 72 302 2.0 3.0 0.00 0.00 0.00 64 1011.8
20260905084757 72 247 1.0 1.0 0.00 0.00 0.00 63 1011.8
20260905084628 72 246 1.0 2.0 0.00 0.00 0.00 63 1012.0
20260905084524 72 242 1.0 3.0 0.00 0.00 0.00 63 1011.9
20260905084419 72 268 1.0 2.0 0.00 0.00 0.00 63 1011.7
20260905084331 72 303 0.0 2.0 0.00 0.00 0.00 63 1011.7
20260905084227 72 306 3.0 4.0 0.00 0.00 0.00 64 1011.7
20260905084122 72 303 3.0 4.0 0.00 0.00 0.00 64 1011.7
20260905084037 72 324 3.0 4.0 0.00 0.00 0.00 63 1011.8
20260905083929 72 334 1.0 4.0 0.00 0.00 0.00 64 1011.9
20260905083825 72 339 1.0 2.0 0.00 0.00 0.00 63 1011.9
20260905083740 72 340 1.0 2.0 0.00 0.00 0.00 63 1012.0
20260905083616 72 340 1.0 2.0 0.00 0.00 0.00 63 1011.8
20260905083527 72 315 2.0 3.0 0.00 0.00 0.00 63 1011.9
20260905083423 72 292 2.0 2.0 0.00 0.00 0.00 63 1011.7
20260905083319 72 297 3.0 4.0 0.00 0.00 0.00 63 1011.8
20260905083230 72 325 0.0 1.0 0.00 0.00 0.00 63 1011.9
20260905083126 72 324 1.0 2.0 0.00 0.00 0.00 63 1011.8
20260905083021 72 314 2.0 3.0 0.00 0.00 0.00 63 1011.8
20260905082917 72 302 2.0 2.0 0.00 0.00 0.00 63 1011.8
20260905082829 72 302 2.0 3.0 0.00 0.00 0.00 63 1011.8
20260905082744 72 307 1.0 1.0 0.00 0.00 0.00 63 1011.7
20260905082620 72 307 0.0 1.0 0.00 0.00 0.00 63 1011.8
20260905082515 72 307 1.0 2.0 0.00 0.00 0.00 63 1011.7
20260905082427 72 314 1.0 2.0 0.00 0.00 0.00 63 1011.9
20260905082323 72 323 1.0 2.0 0.00 0.00 0.00 63 1011.8
20260905082218 72 323 2.0 2.0 0.00 0.00 0.00 63 1011.7
20260905082130 72 322 1.0 3.0 0.00 0.00 0.00 63 1011.9
20260905082025 72 300 2.0 3.0 0.00 0.00 0.00 63 1012.0
20260905081921 72 257 0.0 1.0 0.00 0.00 0.00 63 1011.8
20260905081817 72 257 1.0 1.0 0.00 0.00 0.00 63 1011.9
20260905081728 72 256 1.0 2.0 0.00 0.00 0.00 63 1011.9
20260905081624 72 266 2.0 2.0 0.00 0.00 0.00 63 1011.9
20260905081539 72 275 0.0 1.0 0.00 0.00 0.00 63 1011.8
20260905081415 72 275 1.0 1.0 0.00 0.00 0.00 63 1011.8
20260905081327 72 303 2.0 2.0 0.00 0.00 0.00 63 1011.8
20260905081222 72 324 1.0 2.0 0.00 0.00 0.00 63 1011.7
20260905081118 72 324 2.0 2.0 0.00 0.00 0.00 63 1012.0
20260905081030 72 312 2.0 4.0 0.00 0.00 0.00 63 1011.8
20260905080925 72 294 1.0 3.0 0.00 0.00 0.00 63 1011.8
20260905080821 72 317 0.0 1.0 0.00 0.00 0.00 63 1011.8
20260905080716 72 316 2.0 2.0 0.00 0.00 0.00 63 1012.0
20260905080628 72 319 1.0 2.0 0.00 0.00 0.00 63 1011.9
20260905080524 72 314 0.0 1.0 0.00 0.00 0.00 63 1012.0
20260905080439 72 0.0 0.0 0.00 0.00 0.00 63 1011.9
20260905080331 72 314 1.0 1.0 0.00 0.00 0.00 63 1011.7
20260905080246 72 314 1.0 1.0 0.00 0.00 0.00 63 1011.8
20260905080122 72 314 1.0 2.0 0.00 0.00 0.00 63 1011.8
20260905080017 72 314 1.0 2.0 0.00 0.00 0.00 63 1011.8
20260905075929 72 313 2.0 2.0 0.00 0.00 0.00 62 1011.9
20260905075825 72 310 3.0 4.0 0.00 0.00 0.00 63 1011.8
20260905075720 72 302 2.0 4.0 0.00 0.00 0.00 62 1011.7
20260905075616 72 0.0 0.0 0.00 0.00 0.00 62 1011.8
20260905075528 72 292 0.0 1.0 0.00 0.00 0.00 63 1011.8
20260905075443 72 309 3.0 6.0 0.00 0.00 0.00 63 1011.7
20260905075319 72 297 1.0 2.0 0.00 0.00 0.00 62 1011.7
20260905075230 72 281 0.0 1.0 0.00 0.00 0.00 62 1011.8
20260905075126 72 281 1.0 2.0 0.00 0.00 0.00 62 1011.8
20260905075021 72 332 1.0 2.0 0.00 0.00 0.00 62 1011.7
20260905074917 73 334 0.0 1.0 0.00 0.00 0.00 62 1011.8
20260905074829 73 334 0.0 1.0 0.00 0.00 0.00 62 1011.8
20260905074744 73 334 0.0 1.0 0.00 0.00 0.00 62 1011.9
20260905074620 73 0.0 0.0 0.00 0.00 0.00 62 1011.8
20260905074516 73 0.0 0.0 0.00 0.00 0.00 62 1011.9
20260905074427 73 334 1.0 1.0 0.00 0.00 0.00 62 1011.8
20260905074323 73 328 1.0 3.0 0.00 0.00 0.00 62 1011.7
20260905074218 73 309 1.0 1.0 0.00 0.00 0.00 62 1011.7
20260905074130 73 309 1.0 2.0 0.00 0.00 0.00 62 1011.8
20260905074025 73 296 2.0 3.0 0.00 0.00 0.00 62 1011.8
20260905073921 73 302 1.0 2.0 0.00 0.00 0.00 62 1011.6
20260905073817 73 307 1.0 2.0 0.00 0.00 0.00 62 1011.8
20260905073729 73 308 2.0 3.0 0.00 0.00 0.00 62 1011.8
20260905073624 73 307 3.0 6.0 0.00 0.00 0.00 62 1011.7
20260905073540 73 292 2.0 3.0 0.00 0.00 0.00 62 1011.8
20260905073415 73 284 2.0 2.0 0.00 0.00 0.00 62 1011.7
20260905073327 73 272 1.0 2.0 0.00 0.00 0.00 62 1011.7
20260905073222 73 282 1.0 2.0 0.00 0.00 0.00 62 1011.7
20260905073118 73 279 1.0 2.0 0.00 0.00 0.00 62 1011.8
20260905073029 73 306 1.0 2.0 0.00 0.00 0.00 62 1011.9
20260905072925 73 306 1.0 2.0 0.00 0.00 0.00 62 1011.8
20260905072820 73 293 2.0 2.0 0.00 0.00 0.00 62 1011.8
20260905072716 73 313 2.0 3.0 0.00 0.00 0.00 62 1011.7
20260905072628 73 303 3.0 6.0 0.00 0.00 0.00 61 1011.8
20260905072523 73 307 4.0 6.0 0.00 0.00 0.00 62 1011.7
20260905072419 73 326 1.0 4.0 0.00 0.00 0.00 62 1011.7
20260905072330 73 304 1.0 2.0 0.00 0.00 0.00 62 1011.7
20260905072226 73 308 1.0 3.0 0.00 0.00 0.00 62 1011.9
20260905072122 73 327 1.0 4.0 0.00 0.00 0.00 62 1011.8
20260905072017 73 308 1.0 4.0 0.00 0.00 0.00 62 1011.7
20260905071928 73 302 1.0 2.0 0.00 0.00 0.00 61 1011.8
20260905071824 73 301 2.0 3.0 0.00 0.00 0.00 61 1011.9
20260905071720 73 295 2.0 3.0 0.00 0.00 0.00 61 1011.7
20260905071651 73 300 5.0 7.0 0.00 0.00 0.00 61 1011.8
20260905071526 73 303 1.0 7.0 0.00 0.00 0.00 61 1011.8
20260905071421 73 306 1.0 2.0 0.00 0.00 0.00 61 1011.9
20260905071317 73 301 1.0 2.0 0.00 0.00 0.00 61 1011.7
20260905071229 73 286 1.0 2.0 0.00 0.00 0.00 61 1011.9
20260905071125 73 284 1.0 2.0 0.00 0.00 0.00 61 1012.0
20260905071040 73 282 2.0 3.0 0.00 0.00 0.00 61 1011.8
20260905070916 73 284 2.0 3.0 0.00 0.00 0.00 61 1011.9
20260905070827 73 303 1.0 2.0 0.00 0.00 0.00 61 1012.0
20260905070723 73 291 1.0 2.0 0.00 0.00 0.00 61 1011.8
20260905070638 73 327 1.0 1.0 0.00 0.00 0.00 60 1011.9
20260905070530 73 328 2.0 3.0 0.00 0.00 0.00 61 1012.1
20260905070445 73 298 3.0 4.0 0.00 0.00 0.00 61 1012.2
20260905070321 73 249 1.0 3.0 0.00 0.00 0.00 61 1011.8
20260905070237 73 328 2.0 3.0 0.00 0.00 0.00 61 1011.9
20260905070129 73 284 1.0 2.0 0.00 0.00 0.00 60 1012.1
20260905070024 73 282 2.0 3.0 0.00 0.00 0.00 60 1011.9
20260905065919 73 274 2.0 4.0 0.00 0.00 0.00 61 1012.0
20260905065835 73 315 2.0 2.0 0.00 0.00 0.00 61 1012.1
20260905065727 73 310 2.0 3.0 0.00 0.00 0.00 61 1012.0
20260905065642 73 289 1.0 2.0 0.00 0.00 0.00 61 1012.1
20260905065518 73 280 2.0 6.0 0.00 0.00 0.00 61 1012.0
20260905065429 73 299 2.0 6.0 0.00 0.00 0.00 60 1012.2
20260905065325 73 291 3.0 4.0 0.00 0.00 0.00 61 1012.0
20260905065220 73 312 3.0 3.0 0.00 0.00 0.00 61 1012.0
20260905065116 73 295 3.0 3.0 0.00 0.00 0.00 61 1011.9
20260905065048 73 290 1.0 2.0 0.00 0.00 0.00 61 1012.0
20260905064923 73 296 1.0 2.0 0.00 0.00 0.00 61 1011.9
20260905064819 73 298 2.0 2.0 0.00 0.00 0.00 61 1011.9
20260905064730 73 297 2.0 2.0 0.00 0.00 0.00 61 1012.0
20260905064626 73 295 2.0 2.0 0.00 0.00 0.00 61 1011.9
20260905064521 73 288 1.0 2.0 0.00 0.00 0.00 61 1012.0
20260905064417 73 277 1.0 3.0 0.00 0.00 0.00 61 1012.0
20260905064329 73 244 1.0 2.0 0.00 0.00 0.00 61 1012.1
20260905064224 73 244 1.0 2.0 0.00 0.00 0.00 61 1012.0
20260905064120 73 246 2.0 2.0 0.00 0.00 0.00 61 1012.1
20260905064035 73 256 3.0 4.0 0.00 0.00 0.00 62 1012.0
20260905064007 73 303 1.0 2.0 0.00 0.00 0.00 63 1012.1
20260905063823 73 310 1.0 2.0 0.00 0.00 0.00 63 1012.0
20260905063738 73 310 1.0 1.0 0.00 0.00 0.00 63 1012.1
20260905063630 73 310 0.0 1.0 0.00 0.00 0.00 63 1012.2
20260905063525 73 0.0 0.0 0.00 0.00 0.00 63 1012.1
20260905063421 73 0.0 0.0 0.00 0.00 0.00 63 1012.1
20260905063316 73 0.0 0.0 0.00 0.00 0.00 63 1012.1
20260905063228 73 0.0 0.0 0.00 0.00 0.00 62 1012.0
20260905063144 73 0.0 0.0 0.00 0.00 0.00 62 1012.0
20260905063059 73 0.0 0.0 0.00 0.00 0.00 62 1012.0
20260905062931 73 0.0 0.0 0.00 0.00 0.00 62 1012.0
20260905062826 73 310 0.0 1.0 0.00 0.00 0.00 62 1012.0
20260905062722 73 311 2.0 3.0 0.00 0.00 0.00 62 1012.1
20260905062617 73 316 1.0 2.0 0.00 0.00 0.00 63 1012.1
20260905062529 73 317 0.0 1.0 0.00 0.00 0.00 63 1012.0
20260905062424 73 316 1.0 2.0 0.00 0.00 0.00 63 1011.9
20260905062320 73 316 1.0 2.0 0.00 0.00 0.00 63 1011.9
20260905062216 73 306 1.0 2.0 0.00 0.00 0.00 63 1012.1
20260905062127 73 315 1.0 2.0 0.00 0.00 0.00 63 1012.0
20260905062023 73 0.0 0.0 0.00 0.00 0.00 63 1011.9
20260905061918 73 0.0 0.0 0.00 0.00 0.00 63 1012.0
20260905061830 73 0.0 0.0 0.00 0.00 0.00 63 1012.0
20260905061725 73 309 1.0 2.0 0.00 0.01 0.00 63 1012.1
20260905061621 73 314 2.0 3.0 0.00 0.01 0.00 63 1012.1
20260905061516 73 320 0.0 1.0 0.00 0.01 0.00 63 1012.0
20260905061428 73 320 1.0 1.0 0.00 0.01 0.00 63 1012.2
20260905061323 73 320 1.0 1.0 0.00 0.01 0.00 63 1012.1
20260905061239 73 320 0.0 1.0 0.00 0.01 0.00 63 1012.2
20260905061130 73 320 1.0 1.0 0.00 0.01 0.00 63 1012.2
20260905061045 73 319 1.0 2.0 0.00 0.01 0.00 63 1012.2
20260905060922 73 320 0.0 1.0 0.00 0.01 0.00 63 1012.1
20260905060835 73 320 0.0 1.0 0.00 0.01 0.00 63 1012.2
20260905060727 73 320 0.0 1.0 0.00 0.01 0.00 63 1012.4
20260905060622 73 320 1.0 1.0 0.00 0.01 0.00 63 1012.2
20260905060517 73 320 1.0 2.0 0.00 0.01 0.00 63 1012.1
20260905060428 73 0.0 0.0 0.00 0.01 0.00 63 1012.4
20260905060324 73 320 0.0 1.0 0.00 0.01 0.00 63 1012.2
20260905060219 73 320 0.0 1.0 0.00 0.01 0.00 63 1012.2
20260905060130 73 320 0.0 1.0 0.00 0.01 0.00 63 1012.1
20260905060026 73 320 1.0 2.0 0.00 0.01 0.00 63 1012.4
20260905055921 73 0.0 0.0 0.00 0.01 0.00 63 1012.2
20260905055837 73 322 0.0 1.0 0.00 0.01 0.00 63 1012.0
20260905055729 73 322 1.0 1.0 0.00 0.01 0.00 63 1012.2
20260905055624 73 322 1.0 1.0 0.00 0.01 0.00 63 1012.3
20260905055540 73 322 1.0 1.0 0.00 0.01 0.00 63 1012.3
20260905055435 73 0.0 0.0 0.00 0.01 0.00 63 1012.1
20260905055327 73 323 0.0 1.0 0.00 0.01 0.00 63 1012.1
20260905055242 73 323 1.0 2.0 0.00 0.01 0.00 63 1012.2
20260905055118 73 0.0 0.0 0.00 0.01 0.00 63 1012.2
20260905055030 73 323 0.0 1.0 0.00 0.01 0.00 63 1012.3
20260905054925 73 319 2.0 2.0 0.00 0.01 0.00 63 1012.2
20260905054821 73 299 0.0 1.0 0.00 0.01 0.00 63 1012.2
20260905054716 73 0.0 0.0 0.00 0.01 0.00 63 1012.2
20260905054628 73 299 0.0 1.0 0.00 0.01 0.00 63 1012.5
20260905054523 73 299 0.0 1.0 0.00 0.01 0.00 63 1012.3
20260905054419 73 295 1.0 2.0 0.00 0.01 0.00 63 1012.3
20260905054331 73 0.0 0.0 0.00 0.01 0.00 63 1012.2
20260905054246 73 275 0.0 1.0 0.00 0.01 0.00 63 1012.4
20260905054121 74 0.0 0.0 0.00 0.01 0.00 63 1012.5
20260905054017 74 0.0 0.0 0.00 0.01 0.00 63 1012.2
20260905053928 74 275 0.0 1.0 0.00 0.01 0.00 63 1012.3
20260905053824 74 275 1.0 2.0 0.00 0.01 0.00 63 1012.3
20260905053720 74 274 1.0 2.0 0.00 0.01 0.00 63 1012.4
20260905053635 74 278 1.0 2.0 0.00 0.01 0.00 63 1012.4
20260905053547 74 302 1.0 1.0 0.00 0.01 0.00 62 1012.4
20260905053422 74 0.0 0.0 0.00 0.01 0.00 62 1012.4
20260905053318 74 0.0 0.0 0.00 0.01 0.00 63 1012.5
20260905053229 74 0.0 0.0 0.00 0.01 0.00 63 1012.5
20260905053125 74 0.0 0.0 0.00 0.01 0.00 62 1012.5
20260905053021 74 0.0 0.0 0.00 0.01 0.00 62 1012.3
20260905052916 74 0.0 0.0 0.00 0.01 0.00 62 1012.4
20260905052828 74 0.0 0.0 0.00 0.01 0.00 62 1012.5
20260905052743 74 0.0 0.0 0.00 0.01 0.00 62 1012.5
20260905052619 74 0.0 0.0 0.00 0.01 0.00 62 1012.6
20260905052531 74 302 0.0 1.0 0.00 0.01 0.00 62 1012.4
20260905052426 74 302 1.0 1.0 0.00 0.01 0.00 62 1012.6
20260905052342 74 301 1.0 1.0 0.00 0.01 0.00 62 1012.5
20260905052217 74 301 1.0 1.0 0.00 0.01 0.00 62 1012.6
20260905052129 74 301 0.0 1.0 0.00 0.01 0.00 62 1012.5
20260905052105 74 301 0.0 1.0 0.00 0.01 0.00 62 1012.6
20260905051920 74 301 0.0 1.0 0.00 0.01 0.00 62 1012.5
20260905051816 74 301 0.0 1.0 0.00 0.01 0.00 62 1012.6
20260905051727 74 0.0 0.0 0.00 0.01 0.00 62 1012.8
20260905051623 74 301 0.0 1.0 0.00 0.01 0.00 62 1012.8
20260905051519 74 301 1.0 1.0 0.00 0.01 0.00 62 1012.6
20260905051430 74 301 0.0 1.0 0.00 0.01 0.00 62 1012.7
20260905051346 74 301 1.0 2.0 0.00 0.01 0.00 63 1012.8
20260905051221 74 301 1.0 1.0 0.00 0.01 0.00 63 1012.6
20260905051137 74 301 1.0 2.0 0.00 0.01 0.00 62 1012.8
20260905051028 74 298 2.0 2.0 0.00 0.01 0.00 62 1012.9
20260905050924 74 286 1.0 2.0 0.00 0.01 0.00 62 1012.7
20260905050819 74 289 2.0 3.0 0.00 0.01 0.00 63 1012.7
20260905050731 74 305 1.0 2.0 0.00 0.01 0.00 63 1012.8
20260905050627 74 323 0.0 1.0 0.00 0.01 0.00 62 1012.7
20260905050522 74 324 0.0 1.0 0.00 0.01 0.00 63 1012.8
20260905050417 74 323 1.0 1.0 0.00 0.01 0.00 62 1012.8
20260905050329 74 324 1.0 1.0 0.00 0.01 0.00 62 1012.7
20260905050244 74 324 1.0 2.0 0.00 0.01 0.00 63 1012.8
20260905050120 74 325 2.0 3.0 0.00 0.01 0.00 63 1012.7
20260905050031 74 319 2.0 4.0 0.00 0.01 0.00 63 1012.8
20260905045926 74 285 1.0 1.0 0.00 0.01 0.00 62 1012.8
20260905045822 74 285 0.0 1.0 0.00 0.01 0.00 62 1012.8
20260905045717 74 0.0 0.0 0.00 0.01 0.00 62 1012.7
20260905045629 74 288 1.0 2.0 0.00 0.01 0.00 62 1012.8
20260905045525 74 295 1.0 1.0 0.00 0.01 0.00 62 1012.9
20260905045420 74 295 0.0 1.0 0.00 0.01 0.00 62 1013.1
20260905045316 74 295 0.0 2.0 0.00 0.01 0.00 62 1013.0
20260905045227 74 297 2.0 3.0 0.00 0.01 0.00 62 1013.0
20260905045123 74 295 2.0 2.0 0.00 0.01 0.00 62 1012.8
20260905045018 74 286 1.0 1.0 0.00 0.01 0.00 62 1012.7
20260905044930 74 288 1.0 2.0 0.00 0.01 0.00 62 1012.7
20260905044825 74 292 0.0 1.0 0.00 0.01 0.00 62 1012.8
20260905044721 74 294 2.0 3.0 0.00 0.01 0.00 62 1012.9
20260905044616 74 307 1.0 2.0 0.00 0.01 0.00 62 1012.7
20260905044528 74 332 1.0 2.0 0.00 0.01 0.00 62 1012.9
20260905044424 74 325 2.0 3.0 0.00 0.01 0.00 62 1012.9
20260905044339 74 305 1.0 2.0 0.00 0.01 0.00 62 1012.8
20260905044231 74 316 1.0 1.0 0.00 0.01 0.00 62 1012.7
20260905044126 74 316 1.0 2.0 0.00 0.01 0.00 62 1012.7
20260905044022 74 311 2.0 3.0 0.00 0.01 0.00 62 1012.6
20260905043918 74 263 1.0 1.0 0.00 0.01 0.00 61 1012.8
20260905043829 74 263 0.0 1.0 0.00 0.01 0.00 62 1012.7
20260905043725 74 263 1.0 1.0 0.00 0.01 0.00 61 1012.7
20260905043640 74 263 0.0 1.0 0.00 0.01 0.00 61 1012.7
20260905043536 74 262 1.0 1.0 0.00 0.01 0.00 61 1012.8
20260905043428 74 253 1.0 2.0 0.00 0.01 0.00 61 1012.9
20260905043323 74 302 1.0 2.0 0.00 0.01 0.00 62 1012.9
20260905043219 75 314 1.0 2.0 0.00 0.01 0.00 62 1012.7
20260905043130 75 316 1.0 3.0 0.00 0.01 0.00 62 1012.8
20260905043026 75 298 1.0 2.0 0.00 0.01 0.00 62 1012.9
20260905042921 75 286 1.0 1.0 0.00 0.01 0.00 62 1012.9
20260905042837 75 303 1.0 2.0 0.00 0.01 0.00 62 1012.7
20260905042728 75 318 0.0 1.0 0.00 0.01 0.00 62 1012.7
20260905042624 75 318 1.0 2.0 0.00 0.01 0.00 62 1012.7
20260905042520 75 327 2.0 2.0 0.00 0.01 0.00 61 1012.7
20260905042415 75 337 1.0 3.0 0.00 0.01 0.00 61 1012.7
20260905042327 75 313 1.0 1.0 0.00 0.01 0.00 61 1012.9
20260905042222 75 313 1.0 2.0 0.00 0.01 0.00 62 1012.9
20260905042158 75 308 2.0 2.0 0.00 0.01 0.00 62 1012.8
20260905042050 75 289 2.0 3.0 0.00 0.01 0.00 61 1012.7
20260905041925 75 292 1.0 1.0 0.00 0.01 0.00 61 1012.8
20260905041820 75 293 1.0 2.0 0.00 0.01 0.00 61 1012.7
20260905041716 75 297 2.0 2.0 0.00 0.01 0.00 61 1012.8
20260905041628 75 312 2.0 2.0 0.00 0.01 0.00 61 1012.8
20260905041524 75 318 1.0 2.0 0.00 0.01 0.00 61 1012.8
20260905041451 75 310 2.0 3.0 0.00 0.01 0.00 61 1012.9
20260905041226 75 312 2.0 3.0 0.00 0.01 0.00 61 1012.8
20260905041142 75 322 2.0 4.0 0.00 0.01 0.00 61 1012.8
20260905041017 75 285 1.0 1.0 0.00 0.01 0.00 61 1012.9
20260905040929 75 295 1.0 2.0 0.00 0.01 0.00 61 1012.9
20260905040844 75 315 1.0 2.0 0.00 0.01 0.00 61 1013.0
20260905040720 75 313 0.0 1.0 0.00 0.01 0.00 61 1012.8
20260905040615 75 312 0.0 1.0 0.00 0.01 0.00 61 1012.8
20260905040527 75 312 1.0 2.0 0.00 0.01 0.00 61 1012.8
20260905040422 75 312 0.0 1.0 0.00 0.01 0.00 61 1012.9
20260905040318 75 312 1.0 1.0 0.00 0.01 0.00 61 1013.0
20260905040230 75 312 1.0 2.0 0.00 0.01 0.00 60 1012.8
20260905040125 75 309 2.0 3.0 0.00 0.01 0.00 61 1013.0
20260905040021 75 278 3.0 7.0 0.00 0.01 0.01 60 1012.8
20260905035916 75 330 1.0 2.0 0.00 0.01 0.01 60 1012.8
20260905035828 75 315 2.0 6.0 0.00 0.01 0.01 60 1012.9
20260905035723 75 309 1.0 1.0 0.00 0.01 0.01 60 1013.1
20260905035639 75 308 1.0 2.0 0.00 0.01 0.01 60 1012.9
20260905035531 75 305 2.0 3.0 0.00 0.01 0.01 60 1012.9
20260905035426 75 278 1.0 2.0 0.00 0.01 0.01 60 1013.0
20260905035402 75 268 1.0 1.0 0.00 0.01 0.01 60 1013.0
20260905035217 75 269 0.0 1.0 0.00 0.01 0.01 60 1012.9
20260905035149 75 273 2.0 2.0 0.00 0.01 0.01 60 1013.1
20260905035044 75 312 3.0 4.0 0.00 0.01 0.01 60 1012.8
20260905034919 75 254 1.0 1.0 0.00 0.01 0.01 60 1012.8
20260905034831 75 254 1.0 2.0 0.00 0.01 0.01 60 1012.9
20260905034726 75 282 1.0 2.0 0.00 0.01 0.01 60 1012.9
20260905034622 75 312 1.0 2.0 0.00 0.01 0.01 60 1012.9
20260905034517 75 304 1.0 1.0 0.00 0.01 0.01 60 1013.1
20260905034428 75 299 2.0 3.0 0.00 0.01 0.01 60 1012.9
20260905034324 75 240 1.0 2.0 0.00 0.01 0.01 59 1012.8
20260905034220 75 234 1.0 2.0 0.00 0.01 0.01 60 1012.9
20260905034115 75 242 2.0 3.0 0.00 0.01 0.01 60 1013.0
20260905034027 75 314 1.0 2.0 0.00 0.01 0.01 60 1013.0
20260905033922 75 318 2.0 3.0 0.00 0.01 0.01 59 1013.0
20260905033818 75 309 2.0 4.0 0.00 0.01 0.01 60 1012.9
20260905033750 75 275 1.0 3.0 0.00 0.01 0.01 60 1013.0
20260905033625 75 300 1.0 2.0 0.00 0.01 0.01 60 1012.8
20260905033601 75 316 3.0 4.0 0.00 0.01 0.01 59 1012.7
20260905033417 75 272 1.0 3.0 0.00 0.01 0.01 60 1012.9
20260905033328 75 261 2.0 2.0 0.00 0.01 0.01 59 1012.9
20260905033224 75 262 1.0 1.0 0.00 0.01 0.01 59 1012.8
20260905033139 75 271 2.0 2.0 0.00 0.01 0.01 60 1012.7
20260905033031 75 290 2.0 2.0 0.00 0.01 0.01 60 1012.8
20260905032926 75 298 3.0 4.0 0.00 0.01 0.01 59 1012.9
20260905032822 75 294 1.0 4.0 0.00 0.01 0.01 60 1012.5
20260905032717 75 261 1.0 2.0 0.00 0.01 0.01 59 1012.6
20260905032649 75 257 1.0 2.0 0.00 0.01 0.01 59 1012.9
20260905032524 75 254 2.0 2.0 0.00 0.01 0.01 59 1012.8
20260905032420 75 292 1.0 2.0 0.00 0.01 0.01 59 1012.8
20260905032316 75 320 3.0 6.0 0.00 0.01 0.01 59 1012.9
20260905032227 75 322 3.0 6.0 0.00 0.01 0.01 59 1012.9
20260905032123 75 294 2.0 2.0 0.00 0.01 0.01 59 1012.8
20260905032019 75 280 3.0 4.0 0.00 0.01 0.01 59 1012.8
20260905031930 75 303 4.0 9.0 0.00 0.01 0.01 59 1012.9
20260905031826 75 310 3.0 6.0 0.00 0.01 0.01 59 1012.7
20260905031721 75 240 2.0 3.0 0.00 0.01 0.01 60 1012.7
20260905031637 75 255 1.0 2.0 0.00 0.01 0.01 59 1012.8
20260905031528 75 256 1.0 1.0 0.00 0.01 0.01 60 1012.8
20260905031424 75 256 0.0 1.0 0.00 0.01 0.01 60 1012.9
20260905031319 75 256 1.0 2.0 0.00 0.01 0.01 60 1012.8
20260905031231 75 251 2.0 3.0 0.00 0.01 0.01 60 1012.8
20260905031126 75 296 1.0 3.0 0.00 0.01 0.01 60 1012.8
20260905031022 75 332 3.0 3.0 0.00 0.01 0.01 60 1012.9
20260905030917 75 324 1.0 2.0 0.00 0.01 0.01 60 1012.8
20260905030849 75 318 1.0 2.0 0.00 0.01 0.01 60 1012.7
20260905030725 75 312 1.0 2.0 0.00 0.01 0.01 60 1013.0
20260905030620 75 301 1.0 2.0 0.00 0.01 0.01 60 1012.9
20260905030516 75 248 1.0 2.0 0.00 0.01 0.01 60 1012.7
20260905030427 75 332 1.0 1.0 0.00 0.01 0.01 60 1012.7
20260905030324 75 333 1.0 1.0 0.00 0.01 0.01 60 1012.8
20260905030218 75 333 1.0 1.0 0.00 0.01 0.01 60 1012.8
20260905030130 75 333 1.0 1.0 0.00 0.01 0.01 60 1012.7
20260905030026 75 333 1.0 1.0 0.00 0.01 0.01 60 1012.7
20260905025921 75 333 1.0 1.0 0.00 0.01 0.01 60 1012.8
20260905025817 75 333 0.0 1.0 0.00 0.01 0.01 60 1012.8
20260905025728 75 333 0.0 1.0 0.00 0.01 0.01 60 1012.7
20260905025624 75 333 1.0 1.0 0.00 0.01 0.01 60 1012.8
20260905025519 75 0.0 0.0 0.00 0.01 0.01 60 1012.9
20260905025435 75 333 1.0 2.0 0.00 0.01 0.01 60 1012.7
20260905025327 75 341 1.0 2.0 0.00 0.01 0.01 60 1012.6
20260905025222 75 295 0.0 1.0 0.00 0.01 0.01 60 1012.8
20260905025137 75 292 1.0 2.0 0.00 0.01 0.01 60 1012.6
20260905025029 75 285 2.0 3.0 0.00 0.01 0.01 60 1012.8
20260905024924 76 297 1.0 2.0 0.00 0.01 0.01 60 1012.8
20260905024821 76 0.0 0.0 0.00 0.01 0.01 60 1012.7
20260905024716 76 297 0.0 1.0 0.00 0.01 0.01 60 1012.8
20260905024627 76 0.0 0.0 0.00 0.01 0.01 60 1012.7
20260905024523 76 297 1.0 2.0 0.00 0.01 0.01 60 1012.7
20260905024419 76 297 1.0 2.0 0.00 0.01 0.01 60 1012.7
20260905024410 76 296 1.0 1.0 0.00 0.01 0.01 61 1012.8
20260905024225 76 295 1.0 1.0 0.00 0.01 0.01 60 1012.8
20260905024121 76 299 1.0 2.0 0.00 0.01 0.01 60 1012.7
20260905024017 76 299 2.0 3.0 0.00 0.01 0.01 60 1012.7
20260905023928 76 291 2.0 4.0 0.00 0.01 0.01 60 1012.9
20260905023824 76 234 1.0 1.0 0.00 0.01 0.01 60 1012.8
20260905023720 76 234 1.0 1.0 0.00 0.01 0.01 60 1012.9
20260905023615 76 233 1.0 2.0 0.00 0.01 0.01 60 1012.7
20260905023527 76 302 1.0 2.0 0.00 0.01 0.01 60 1012.7
20260905023423 76 313 1.0 2.0 0.00 0.01 0.01 60 1012.6
20260905023318 76 313 1.0 1.0 0.00 0.01 0.01 60 1012.7
20260905023229 76 309 2.0 3.0 0.00 0.01 0.01 60 1012.6
20260905023125 76 300 3.0 6.0 0.00 0.01 0.01 60 1012.6
20260905023040 76 306 3.0 4.0 0.00 0.01 0.01 60 1012.7
20260905022915 76 309 1.0 3.0 0.00 0.01 0.01 60 1012.9
20260905022827 76 290 2.0 4.0 0.00 0.01 0.01 60 1012.8
20260905022743 76 311 3.0 7.0 0.00 0.01 0.01 60 1012.7
20260905022618 76 262 3.0 3.0 0.00 0.01 0.01 60 1012.7
20260905022530 76 311 3.0 4.0 0.00 0.01 0.01 60 1012.9
20260905022426 76 320 2.0 2.0 0.00 0.01 0.01 60 1012.7
20260905022341 76 331 3.0 4.0 0.00 0.01 0.01 60 1012.8
20260905022217 76 298 2.0 3.0 0.00 0.01 0.01 60 1012.6
20260905022128 76 300 2.0 3.0 0.00 0.01 0.01 60 1012.7
20260905022024 76 284 1.0 3.0 0.00 0.01 0.01 60 1012.9
20260905021919 76 291 2.0 2.0 0.00 0.01 0.01 60 1012.7
20260905021851 76 239 2.0 3.0 0.00 0.01 0.01 60 1012.8
20260905021726 76 258 2.0 3.0 0.00 0.01 0.01 61 1012.8
20260905021622 76 292 1.0 2.0 0.00 0.01 0.01 61 1012.7
20260905021517 76 305 2.0 3.0 0.00 0.01 0.01 60 1012.8
20260905021429 76 301 3.0 4.0 0.00 0.01 0.01 60 1012.7
20260905021324 76 300 2.0 8.0 0.00 0.01 0.01 60 1012.8
20260905021240 76 297 2.0 3.0 0.00 0.01 0.01 60 1012.8
20260905021115 76 306 3.0 3.0 0.00 0.01 0.01 60 1013.0
20260905021027 76 271 1.0 3.0 0.00 0.01 0.01 60 1012.9
20260905020923 76 266 1.0 2.0 0.00 0.01 0.01 61 1012.8
20260905020818 76 266 1.0 1.0 0.00 0.01 0.01 61 1012.8
20260905020730 76 266 1.0 2.0 0.00 0.01 0.01 61 1012.8
20260905020626 76 265 1.0 2.0 0.00 0.01 0.01 61 1012.9
20260905020521 76 265 1.0 2.0 0.00 0.01 0.01 61 1013.0
20260905020416 76 283 2.0 2.0 0.00 0.01 0.01 61 1012.9
20260905020328 76 297 1.0 1.0 0.00 0.01 0.01 61 1012.9
20260905020224 76 297 1.0 1.0 0.00 0.01 0.01 61 1012.8
20260905020120 76 297 1.0 1.0 0.00 0.01 0.01 61 1012.8
20260905020015 75 297 1.0 1.0 0.00 0.01 0.01 61 1013.0
20260905015927 75 297 1.0 2.0 0.00 0.01 0.01 61 1012.9
20260905015822 75 297 0.0 1.0 0.00 0.01 0.01 62 1012.8
20260905015718 75 298 1.0 1.0 0.00 0.01 0.01 62 1012.9
20260905015630 75 298 0.0 1.0 0.00 0.01 0.01 61 1013.1
20260905015525 75 298 0.0 1.0 0.00 0.01 0.01 61 1013.1
20260905015421 75 298 0.0 1.0 0.00 0.01 0.01 62 1013.0
20260905015316 75 298 0.0 1.0 0.00 0.01 0.01 62 1013.1
20260905015228 75 298 0.0 1.0 0.00 0.01 0.01 61 1013.0
20260905015123 75 298 0.0 1.0 0.00 0.01 0.01 61 1013.1
20260905015019 75 298 0.0 1.0 0.00 0.01 0.01 61 1012.9
20260905014931 75 298 0.0 1.0 0.00 0.01 0.01 62 1013.2
20260905014846 75 298 0.0 1.0 0.00 0.01 0.01 62 1013.1
20260905014722 75 298 0.0 1.0 0.00 0.01 0.01 62 1013.0
20260905014617 75 298 1.0 2.0 0.00 0.01 0.01 62 1013.0
20260905014529 75 298 2.0 3.0 0.00 0.01 0.01 62 1012.9
20260905014425 75 298 0.0 1.0 0.00 0.01 0.01 62 1013.0
20260905014320 75 297 1.0 2.0 0.00 0.01 0.01 62 1013.0
20260905014215 75 299 1.0 2.0 0.00 0.01 0.01 62 1012.9
20260905014127 75 303 1.0 1.0 0.00 0.01 0.01 62 1013.1
20260905014023 75 303 1.0 1.0 0.00 0.01 0.01 63 1013.0
20260905013918 75 303 1.0 1.0 0.00 0.01 0.01 62 1013.0
20260905013830 75 304 1.0 2.0 0.00 0.01 0.01 62 1013.0
20260905013725 75 304 1.0 2.0 0.00 0.01 0.01 63 1013.1
20260905013621 75 304 1.0 1.0 0.00 0.01 0.01 62 1013.0
20260905013516 75 305 1.0 1.0 0.00 0.01 0.01 63 1012.8
20260905013428 75 305 0.0 1.0 0.00 0.01 0.01 62 1012.9
20260905013344 75 0.0 0.0 0.00 0.01 0.01 62 1012.9
20260905013219 75 0.0 0.0 0.00 0.01 0.01 62 1012.9
20260905013130 75 305 0.0 1.0 0.00 0.01 0.01 63 1012.8
20260905013025 75 305 0.0 1.0 0.00 0.01 0.01 63 1012.8
20260905012921 75 305 0.0 1.0 0.00 0.01 0.01 63 1012.9
20260905012856 75 0.0 0.0 0.00 0.01 0.01 63 1012.8
20260905012748 75 305 0.0 1.0 0.00 0.01 0.01 63 1013.0
20260905012623 75 304 1.0 2.0 0.00 0.01 0.01 63 1013.0
20260905012539 75 300 0.0 1.0 0.00 0.01 0.01 63 1013.1
20260905012430 75 300 1.0 1.0 0.00 0.01 0.01 63 1012.9
20260905012325 75 300 1.0 1.0 0.00 0.01 0.01 63 1013.1
20260905012221 75 300 1.0 1.0 0.00 0.01 0.01 64 1013.0
20260905012116 75 300 1.0 3.0 0.00 0.01 0.01 64 1013.0
20260905012028 75 300 1.0 1.0 0.00 0.01 0.01 64 1013.1
20260905011943 75 300 1.0 2.0 0.00 0.01 0.01 63 1012.9
20260905011838 75 0.0 0.0 0.00 0.01 0.01 63 1013.0
20260905011730 75 0.0 0.0 0.00 0.01 0.01 63 1012.9
20260905011625 75 300 0.0 1.0 0.00 0.01 0.01 63 1013.1
20260905011521 75 0.0 0.0 0.00 0.01 0.01 63 1013.1
20260905011416 75 0.0 0.0 0.00 0.01 0.01 63 1013.0
20260905011328 75 300 0.0 1.0 0.00 0.01 0.01 63 1012.9
20260905011224 75 0.0 0.0 0.00 0.01 0.01 63 1013.0
20260905011119 75 299 0.0 1.0 0.00 0.01 0.01 63 1013.0
20260905011030 75 0.0 0.0 0.00 0.01 0.01 63 1013.0
20260905010926 75 299 0.0 1.0 0.00 0.01 0.01 63 1013.2
20260905010822 75 299 0.0 1.0 0.00 0.01 0.01 63 1012.9
20260905010717 75 0.0 0.0 0.00 0.01 0.01 63 1013.0
20260905010649 75 299 0.0 1.0 0.00 0.01 0.01 63 1013.0
20260905010524 76 299 0.0 1.0 0.00 0.01 0.01 63 1012.8
20260905010500 76 0.0 0.0 0.00 0.01 0.01 63 1012.9
20260905010316 76 299 0.0 1.0 0.00 0.01 0.01 63 1012.9
20260905010227 76 299 1.0 1.0 0.00 0.01 0.01 63 1012.8
20260905010123 76 299 0.0 1.0 0.00 0.01 0.01 62 1012.6
20260905010018 76 299 0.0 1.0 0.00 0.01 0.01 63 1012.6
20260905005930 76 299 0.0 1.0 0.00 0.01 0.01 63 1012.7
20260905005825 76 299 1.0 1.0 0.00 0.01 0.01 63 1012.6
20260905005720 76 299 0.0 1.0 0.00 0.01 0.01 63 1012.4
20260905005616 76 299 1.0 2.0 0.00 0.01 0.01 63 1012.8
20260905005548 76 297 1.0 2.0 0.00 0.01 0.01 63 1012.8
20260905005423 76 295 1.0 1.0 0.00 0.01 0.01 64 1012.7
20260905005319 76 295 1.0 1.0 0.00 0.01 0.01 64 1012.7
20260905005230 76 295 1.0 1.0 0.00 0.01 0.01 63 1012.7
20260905005206 76 295 1.0 1.0 0.00 0.01 0.01 64 1012.6
20260905005022 76 295 1.0 1.0 0.00 0.01 0.01 64 1012.6
20260905004917 76 295 1.0 1.0 0.00 0.01 0.01 64 1012.8
20260905004829 76 296 1.0 1.0 0.00 0.01 0.01 64 1012.8
20260905004724 76 295 1.0 2.0 0.00 0.01 0.01 65 1012.6
20260905004620 76 296 1.0 1.0 0.00 0.01 0.01 65 1012.7
20260905004516 76 297 1.0 1.0 0.00 0.01 0.01 64 1012.9
20260905004427 76 297 1.0 1.0 0.00 0.01 0.01 65 1012.6
20260905004343 76 297 1.0 1.0 0.00 0.01 0.01 65 1012.8
20260905004218 76 297 1.0 1.0 0.00 0.01 0.01 65 1012.9
20260905004130 76 297 1.0 1.0 0.00 0.01 0.01 65 1012.9
20260905004026 76 297 1.0 1.0 0.00 0.01 0.01 64 1012.8
20260905003941 76 297 1.0 1.0 0.00 0.01 0.01 64 1012.9
20260905003816 76 297 1.0 1.0 0.00 0.01 0.01 64 1012.9
20260905003728 76 298 1.0 2.0 0.00 0.01 0.01 64 1012.8
20260905003624 76 297 1.0 1.0 0.00 0.01 0.01 64 1012.7
20260905003559 76 297 1.0 1.0 0.00 0.01 0.01 64 1012.7
20260905003430 76 298 0.0 1.0 0.00 0.01 0.01 63 1012.8
20260905003326 76 0.0 0.0 0.00 0.01 0.01 63 1012.7
20260905003222 76 0.0 0.0 0.00 0.01 0.01 64 1012.7
20260905003137 76 0.0 0.0 0.00 0.01 0.01 63 1012.7
20260905003029 76 0.0 0.0 0.00 0.01 0.01 62 1012.6
20260905002924 76 298 0.0 1.0 0.00 0.01 0.01 61 1012.6
20260905002820 76 298 0.0 1.0 0.00 0.01 0.01 60 1012.6
20260905002715 76 298 0.0 1.0 0.00 0.01 0.01 60 1012.7
20260905002647 76 298 0.0 1.0 0.00 0.01 0.01 59 1012.5
20260905002523 76 0.0 0.0 0.00 0.01 0.01 59 1012.6
20260905002438 76 0.0 0.0 0.00 0.01 0.01 59 1012.6
20260905002330 76 0.0 0.0 0.00 0.01 0.01 59 1012.6
20260905002225 76 0.0 0.0 0.00 0.01 0.01 59 1012.4
20260905002121 76 0.0 0.0 0.00 0.01 0.01 58 1012.5
20260905002016 76 0.0 0.0 0.00 0.01 0.01 59 1012.6
20260905001928 76 0.0 0.0 0.00 0.01 0.01 59 1012.6
20260905001904 76 0.0 0.0 0.00 0.01 0.01 58 1012.5
20260905001719 77 0.0 0.0 0.00 0.01 0.01 59 1012.5
20260905001631 77 0.0 0.0 0.00 0.01 0.01 58 1012.5
20260905001547 77 0.0 0.0 0.00 0.01 0.01 59 1012.6
20260905001422 77 0.0 0.0 0.00 0.01 0.01 58 1012.7
20260905001317 77 0.0 0.0 0.00 0.01 0.01 59 1012.7
20260905001228 77 0.0 0.0 0.00 0.01 0.01 59 1012.5
20260905001124 77 0.0 0.0 0.00 0.01 0.01 59 1012.6
20260905001039 77 0.0 0.0 0.00 0.01 0.01 59 1012.5
20260905000950 77 0.0 0.0 0.00 0.01 0.01 59 1012.4
20260905000825 77 0.0 0.0 0.00 0.01 0.01 59 1012.5
20260905000721 77 0.0 0.0 0.00 0.01 0.01 59 1012.6
20260905000616 77 0.0 0.0 0.00 0.01 0.01 59 1012.6
20260905000528 77 297 0.0 1.0 0.00 0.01 0.01 58 1012.6
20260905000424 77 0.0 0.0 0.00 0.01 0.01 58 1012.5
20260905000319 77 0.0 0.0 0.00 0.01 0.01 59 1012.4
20260905000231 77 297 1.0 1.0 0.00 0.01 0.01 58 1012.5
20260905000146 78 297 1.0 1.0 0.00 0.01 0.01 58 1012.3
20260905000022 78 297 1.0 1.0 0.00 0.01 0.01 57 1012.3
20260904235917 78 0.0 0.0 0.00 0.01 0.01 57 1012.6
20260904235829 78 297 0.0 1.0 0.00 0.01 0.01 57 1012.5
20260904235724 78 0.0 0.0 0.00 0.01 0.01 57 1012.6
20260904235619 78 0.0 0.0 0.00 0.01 0.01 58 1012.7
20260904235515 78 0.0 0.0 0.00 0.01 0.01 58 1012.6
20260904235427 78 297 0.0 1.0 0.00 0.01 0.01 57 1012.6
20260904235322 78 297 1.0 1.0 0.00 0.01 0.01 57 1012.6
20260904235237 78 297 1.0 1.0 0.00 0.01 0.01 57 1012.4
20260904235129 78 297 0.0 1.0 0.00 0.01 0.01 57 1012.4
20260904235025 78 297 0.0 1.0 0.00 0.01 0.01 56 1012.3
20260904234920 78 0.0 0.0 0.00 0.01 0.01 56 1012.4
20260904234816 78 0.0 0.0 0.00 0.01 0.01 56 1012.4
20260904234727 78 297 0.0 1.0 0.00 0.01 0.01 56 1012.4
20260904234623 78 297 0.0 1.0 0.00 0.01 0.01 56 1012.4
20260904234518 79 297 0.0 1.0 0.00 0.01 0.01 56 1012.4
20260904234430 79 297 0.0 1.0 0.00 0.01 0.01 56 1012.3
20260904234325 79 297 0.0 1.0 0.00 0.01 0.01 55 1012.4
20260904234221 79 0.0 0.0 0.00 0.01 0.01 55 1012.4
20260904234137 79 0.0 0.0 0.00 0.01 0.01 55 1012.4
20260904234028 79 0.0 0.0 0.00 0.01 0.01 55 1012.2
20260904233924 79 0.0 0.0 0.00 0.01 0.01 54 1012.3
20260904233839 79 298 0.0 1.0 0.00 0.01 0.01 54 1012.2
20260904233715 79 298 0.0 1.0 0.00 0.01 0.01 54 1012.2
20260904233627 79 0.0 0.0 0.00 0.01 0.01 54 1012.2
20260904233522 79 0.0 0.0 0.00 0.01 0.01 54 1012.2
20260904233418 80 0.0 0.0 0.00 0.01 0.01 54 1012.2
20260904233329 80 0.0 0.0 0.00 0.01 0.01 54 1012.4
20260904233225 80 0.0 0.0 0.00 0.01 0.01 54 1012.5
20260904233140 80 298 0.0 1.0 0.00 0.01 0.01 54 1012.6
20260904233016 80 298 0.0 1.0 0.00 0.01 0.01 53 1012.4
20260904232927 80 297 0.0 1.0 0.00 0.01 0.01 53 1012.5
20260904232843 80 0.0 0.0 0.00 0.01 0.01 53 1012.3
20260904232718 80 297 0.0 1.0 0.00 0.01 0.01 53 1012.3
20260904232630 80 298 1.0 1.0 0.00 0.01 0.01 53 1012.5
20260904232525 80 298 1.0 2.0 0.00 0.01 0.01 53 1012.5
20260904232441 80 298 1.0 2.0 0.00 0.01 0.01 53 1012.2
20260904232316 80 247 0.0 1.0 0.00 0.01 0.01 53 1012.4
20260904232307 80 0.0 0.0 0.00 0.01 0.01 53 1012.4
20260904232122 80 246 0.0 1.0 0.00 0.01 0.01 52 1012.3
20260904232018 80 246 1.0 1.0 0.00 0.01 0.01 52 1012.5
20260904231929 81 246 1.0 2.0 0.00 0.01 0.01 52 1012.2
20260904231825 81 246 1.0 1.0 0.00 0.01 0.01 52 1012.1
20260904231720 81 246 0.0 1.0 0.00 0.01 0.01 52 1012.3
20260904231616 81 246 0.0 1.0 0.00 0.01 0.01 52 1012.3
20260904231527 81 246 1.0 1.0 0.00 0.01 0.01 52 1012.2
20260904231423 81 246 1.0 2.0 0.00 0.01 0.01 52 1012.3
20260904231318 81 243 2.0 2.0 0.00 0.01 0.01 51 1012.4
20260904231230 81 243 2.0 3.0 0.00 0.01 0.01 51 1012.3
20260904231145 81 286 2.0 3.0 0.00 0.01 0.01 51 1012.2
20260904231021 81 289 1.0 2.0 0.00 0.01 0.01 51 1012.2
20260904230917 81 273 1.0 2.0 0.00 0.01 0.01 51 1012.1
20260904230828 81 259 1.0 3.0 0.00 0.01 0.01 51 1012.3
20260904230744 81 287 2.0 3.0 0.00 0.01 0.01 51 1012.4
20260904230619 81 240 2.0 4.0 0.00 0.01 0.01 51 1012.4
20260904230530 82 257 2.0 3.0 0.00 0.01 0.01 51 1012.2
20260904230425 82 275 2.0 2.0 0.00 0.01 0.01 50 1012.3
20260904230319 82 255 1.0 1.0 0.00 0.01 0.01 50 1012.4
20260904230231 82 276 3.0 4.0 0.00 0.01 0.01 50 1012.3
20260904230126 82 251 3.0 4.0 0.00 0.01 0.01 50 1012.4
20260904230022 82 273 2.0 3.0 0.00 0.01 0.01 50 1012.4
20260904225917 82 287 2.0 3.0 0.00 0.01 0.01 50 1012.3
20260904225829 82 253 2.0 3.0 0.00 0.01 0.01 50 1012.4
20260904225724 82 245 2.0 2.0 0.00 0.01 0.01 50 1012.3
20260904225700 82 243 2.0 3.0 0.00 0.01 0.01 49 1012.2
20260904225535 82 248 2.0 3.0 0.00 0.01 0.01 49 1012.4
20260904225427 82 268 3.0 6.0 0.00 0.01 0.01 49 1012.3
20260904225323 82 307 3.0 4.0 0.00 0.01 0.01 49 1012.4
20260904225218 83 308 4.0 6.0 0.00 0.01 0.01 49 1012.2
20260904225149 83 301 3.0 6.0 0.00 0.01 0.01 49 1012.2
20260904225105 83 279 2.0 6.0 0.00 0.01 0.01 49 1012.3
20260904224940 83 249 1.0 2.0 0.00 0.01 0.01 49 1012.1
20260904224816 83 248 2.0 2.0 0.00 0.01 0.01 49 1012.3
20260904224728 83 249 1.0 2.0 0.00 0.01 0.01 48 1012.6
20260904224623 83 257 2.0 4.0 0.00 0.01 0.01 48 1012.6
20260904224538 83 250 3.0 6.0 0.00 0.01 0.01 48 1012.4
20260904224429 83 251 3.0 7.0 0.00 0.01 0.01 48 1012.5
20260904224325 83 296 1.0 2.0 0.00 0.01 0.01 48 1012.4
20260904224220 83 314 2.0 3.0 0.00 0.01 0.01 48 1012.5
20260904224116 83 251 2.0 2.0 0.00 0.01 0.01 47 1012.4
20260904224027 84 242 4.0 6.0 0.00 0.01 0.01 47 1012.6
20260904223923 84 253 3.0 6.0 0.00 0.01 0.01 47 1012.7
20260904223819 84 266 2.0 4.0 0.00 0.01 0.01 47 1012.5
20260904223730 84 236 4.0 7.0 0.00 0.01 0.01 47 1012.5
20260904223626 84 241 3.0 7.0 0.00 0.01 0.01 47 1012.5
20260904223541 84 254 5.0 9.0 0.00 0.01 0.01 46 1012.6
20260904223417 84 246 3.0 4.0 0.00 0.01 0.01 46 1012.4
20260904223328 84 249 2.0 3.0 0.00 0.01 0.01 47 1012.6
20260904223224 84 258 1.0 2.0 0.00 0.01 0.01 47 1012.4
20260904223119 84 255 1.0 2.0 0.00 0.01 0.01 46 1012.5
20260904223015 85 243 3.0 3.0 0.00 0.01 0.01 46 1012.6
20260904222927 85 242 2.0 3.0 0.00 0.01 0.01 46 1012.5
20260904222822 85 252 2.0 3.0 0.00 0.01 0.01 46 1012.5
20260904222718 85 268 1.0 2.0 0.00 0.01 0.01 46 1012.5
20260904222649 85 298 3.0 6.0 0.00 0.01 0.01 45 1012.5
20260904222525 85 248 2.0 3.0 0.00 0.01 0.01 45 1012.3
20260904222523 86 245 2.0 3.0 0.00 0.01 0.01 45 1012.4
20260904222316 86 275 2.0 6.0 0.00 0.01 0.01 45 1012.6
20260904222228 86 280 2.0 4.0 0.00 0.01 0.01 44 1012.6
20260904222123 86 255 3.0 8.0 0.00 0.01 0.01 44 1012.6
20260904222019 86 260 1.0 2.0 0.00 0.01 0.01 44 1012.7
20260904221930 87 263 1.0 3.0 0.00 0.01 0.01 44 1012.5
20260904221825 87 240 5.0 8.0 0.00 0.01 0.01 43 1012.5
20260904221720 87 297 2.0 3.0 0.00 0.01 0.01 43 1012.5
20260904221615 87 238 3.0 6.0 0.00 0.01 0.01 42 1012.5
20260904221547 87 252 3.0 6.0 0.00 0.01 0.01 43 1012.5
20260904221423 87 295 2.0 6.0 0.00 0.01 0.01 44 1012.5
20260904221318 87 303 3.0 6.0 0.00 0.01 0.01 44 1012.3
20260904221230 87 251 2.0 2.0 0.00 0.01 0.01 44 1012.3
20260904221128 87 251 2.0 3.0 0.00 0.01 0.01 43 1012.4
20260904221019 87 234 3.0 4.0 0.00 0.01 0.01 43 1012.4
20260904220931 87 280 2.0 6.0 0.00 0.01 0.01 43 1012.4
20260904220826 87 317 2.0 6.0 0.00 0.01 0.01 44 1012.4
20260904220742 87 332 2.0 3.0 0.00 0.01 0.01 43 1012.6
20260904220637 87 281 2.0 4.0 0.00 0.01 0.01 43 1012.3
20260904220529 87 234 3.0 4.0 0.00 0.01 0.01 43 1012.6
20260904220424 87 244 4.0 7.0 0.00 0.01 0.01 42 1012.5
20260904220400 87 234 4.0 7.0 0.00 0.01 0.01 43 1012.3
20260904220215 87 247 3.0 6.0 0.00 0.01 0.01 44 1012.4
20260904220127 87 243 3.0 4.0 0.00 0.01 0.01 45 1012.4
20260904220043 87 251 2.0 4.0 0.00 0.01 0.01 44 1012.2
20260904215918 87 236 3.0 6.0 0.00 0.01 0.01 43 1012.2
20260904215830 87 261 2.0 4.0 0.00 0.01 0.01 42 1012.6
20260904215726 87 263 4.0 8.0 0.00 0.01 0.01 41 1012.4
20260904215701 88 259 5.0 8.0 0.00 0.01 0.01 42 1012.5
20260904215516 88 279 5.0 11.0 0.00 0.01 0.01 43 1012.4
20260904215428 88 229 4.0 7.0 0.00 0.01 0.01 42 1012.5
20260904215324 88 235 4.0 8.0 0.00 0.01 0.01 43 1012.4
20260904215220 88 263 5.0 10.0 0.00 0.01 0.01 43 1012.4
20260904215115 88 248 2.0 10.0 0.00 0.01 0.01 44 1012.4
20260904215027 88 250 2.0 2.0 0.00 0.01 0.01 44 1012.2
20260904214922 87 285 2.0 4.0 0.00 0.01 0.01 44 1012.2
20260904214818 87 286 5.0 8.0 0.00 0.01 0.01 43 1012.3
20260904214730 87 301 2.0 3.0 0.00 0.01 0.01 44 1012.4
20260904214625 87 259 1.0 3.0 0.00 0.01 0.01 44 1012.3
20260904214520 87 245 4.0 6.0 0.00 0.01 0.01 42 1012.4
20260904214416 87 262 3.0 3.0 0.00 0.01 0.01 43 1012.2
20260904214327 87 240 5.0 9.0 0.00 0.01 0.01 42 1012.3
20260904214223 87 249 5.0 7.0 0.00 0.01 0.01 42 1012.3
20260904214117 87 284 3.0 4.0 0.00 0.01 0.01 42 1012.4
20260904214048 87 233 4.0 8.0 0.00 0.01 0.01 43 1012.2
20260904213923 87 254 4.0 9.0 0.00 0.01 0.01 44 1012.3
20260904213817 87 253 3.0 6.0 0.00 0.01 0.01 42 1012.3
20260904213729 87 265 3.0 4.0 0.00 0.01 0.01 42 1012.2
20260904213644 87 273 5.0 9.0 0.00 0.01 0.01 42 1012.2
20260904213520 87 256 3.0 4.0 0.00 0.01 0.01 43 1012.2
20260904213416 87 279 3.0 4.0 0.00 0.01 0.01 44 1012.4
20260904213327 87 321 3.0 6.0 0.00 0.01 0.01 44 1012.3
20260904213222 87 319 3.0 4.0 0.00 0.01 0.01 45 1012.2
20260904213118 87 297 2.0 3.0 0.00 0.01 0.01 44 1012.2
20260904213030 86 276 4.0 8.0 0.00 0.01 0.01 44 1012.3
20260904212925 86 306 3.0 6.0 0.00 0.01 0.01 45 1012.1
20260904212821 86 287 3.0 6.0 0.00 0.01 0.01 44 1012.2
20260904212736 86 310 4.0 6.0 0.00 0.01 0.01 43 1012.3
20260904212628 86 256 5.0 8.0 0.00 0.01 0.01 44 1012.1
20260904212524 86 250 2.0 3.0 0.00 0.01 0.01 44 1012.1
20260904212419 86 270 4.0 7.0 0.00 0.01 0.01 43 1012.1
20260904212331 86 245 4.0 6.0 0.00 0.01 0.01 43 1012.0
20260904212226 86 257 3.0 4.0 0.00 0.01 0.01 44 1012.0
20260904212122 86 256 7.0 10.0 0.00 0.01 0.01 44 1011.9
20260904212018 86 280 3.0 6.0 0.00 0.01 0.01 44 1011.9
20260904211929 86 259 3.0 6.0 0.00 0.01 0.01 45 1011.9
20260904211825 86 248 4.0 8.0 0.00 0.01 0.01 44 1011.9
20260904211720 86 246 5.0 9.0 0.00 0.01 0.01 43 1011.9
20260904211616 86 245 7.0 11.0 0.00 0.01 0.01 45 1012.0
20260904211527 86 289 3.0 4.0 0.00 0.01 0.01 45 1012.0
20260904211423 86 272 5.0 7.0 0.00 0.01 0.01 44 1011.9
20260904211318 86 328 4.0 6.0 0.00 0.01 0.01 43 1012.0
20260904211230 86 245 4.0 6.0 0.00 0.01 0.01 44 1011.9
20260904211125 86 248 6.0 8.0 0.00 0.01 0.01 44 1012.1
20260904211021 86 259 4.0 6.0 0.00 0.01 0.01 44 1012.1
20260904210917 86 262 5.0 8.0 0.00 0.01 0.01 44 1012.1
20260904210829 86 247 5.0 9.0 0.00 0.01 0.01 45 1012.1
20260904210724 86 260 5.0 10.0 0.00 0.01 0.01 45 1012.0
20260904210620 86 260 6.0 8.0 0.00 0.01 0.01 45 1012.1
20260904210515 86 272 3.0 10.0 0.00 0.01 0.01 46 1012.0
20260904210427 86 272 2.0 3.0 0.00 0.01 0.01 45 1012.0
20260904210342 86 237 2.0 3.0 0.00 0.01 0.01 47 1011.9
20260904210218 86 317 5.0 8.0 0.00 0.01 0.01 46 1012.0
20260904210130 86 262 4.0 7.0 0.00 0.01 0.01 46 1012.0
20260904210025 86 263 5.0 8.0 0.00 0.01 0.01 47 1012.1
20260904205921 86 260 2.0 3.0 0.00 0.01 0.01 48 1012.1
20260904205816 85 310 4.0 6.0 0.00 0.01 0.01 48 1012.0
20260904205728 85 266 4.0 8.0 0.00 0.01 0.01 47 1012.0
20260904205624 85 288 4.0 8.0 0.00 0.01 0.01 48 1012.1
20260904205519 85 282 2.0 3.0 0.00 0.01 0.01 48 1012.2
20260904205415 85 269 3.0 7.0 0.00 0.01 0.01 47 1012.0
20260904205326 85 256 2.0 4.0 0.00 0.01 0.01 48 1012.2
20260904205242 85 259 4.0 9.0 0.00 0.01 0.01 48 1012.0
20260904205118 85 240 5.0 7.0 0.00 0.01 0.01 49 1012.0